Time,TemperatureF,DewpointF,PressureIn,WindDirection,WindDirectionDegrees,WindSpeedMPH,WindSpeedGustMPH,Humidity,HourlyPrecipIn,Conditions,Clouds,dailyrainin,SoftwareType,DateUTC
2013-05-23 00:01:00,63.2,60.8,29.93,North,0,0.0,0.0,92,0.00,,,0.00,WUHU216HW,2013-05-23 04:01:00,
2013-05-23 00:06:00,63.0,60.4,29.93,North,0,0.0,0.0,91,0.00,,,0.00,WUHU216HW,2013-05-23 04:06:00,
2013-05-23 00:07:00,63.0,60.4,29.93,North,0,0.0,0.0,91,0.00,,,0.00,WUHU216HW,2013-05-23 04:07:00,
2013-05-23 00:11:00,62.8,59.9,29.93,North,0,0.0,0.0,90,0.00,,,0.00,WUHU216HW,2013-05-23 04:11:00,
2013-05-23 00:12:00,62.8,59.9,29.93,North,0,0.0,0.0,90,0.00,,,0.00,WUHU216HW,2013-05-23 04:12:00,
2013-05-23 00:16:00,62.5,59.6,29.93,North,0,0.0,0.0,90,0.00,,,0.00,WUHU216HW,2013-05-23 04:16:00,
2013-05-23 00:17:00,62.5,59.6,29.93,North,0,0.0,0.0,90,0.00,,,0.00,WUHU216HW,2013-05-23 04:17:00,
2013-05-23 00:18:00,62.5,59.6,29.93,North,0,0.0,0.0,90,0.00,,,0.00,WUHU216HW,2013-05-23 04:18:00,
2013-05-23 00:21:00,62.3,59.4,29.93,North,0,0.0,0.0,90,0.00,,,0.00,WUHU216HW,2013-05-23 04:21:00,
2013-05-23 00:22:00,62.3,59.4,29.93,North,0,0.0,0.0,90,0.00,,,0.00,WUHU216HW,2013-05-23 04:22:00,
2013-05-23 00:23:00,62.3,59.4,29.93,North,0,0.0,0.0,90,0.00,,,0.00,WUHU216HW,2013-05-23 04:23:00,
2013-05-23 00:26:00,62.3,59.4,29.93,North,0,0.0,0.0,90,0.00,,,0.00,WUHU216HW,2013-05-23 04:26:00,
2013-05-23 00:27:00,62.3,59.4,29.93,North,0,0.0,0.0,90,0.00,,,0.00,WUHU216HW,2013-05-23 04:27:00,
2013-05-23 00:28:00,62.1,59.2,29.93,North,0,0.0,0.0,90,0.00,,,0.00,WUHU216HW,2013-05-23 04:28:00,
2013-05-23 00:31:00,61.9,59.0,29.93,North,0,0.0,0.0,90,0.00,,,0.00,WUHU216HW,2013-05-23 04:31:00,
2013-05-23 00:32:00,61.9,59.0,29.93,North,0,0.0,0.0,90,0.00,,,0.00,WUHU216HW,2013-05-23 04:32:00,
2013-05-23 00:34:00,61.9,59.0,29.93,North,0,0.0,0.0,90,0.00,,,0.00,WUHU216HW,2013-05-23 04:34:00,
2013-05-23 00:37:00,61.7,58.9,29.93,North,0,0.0,0.0,90,0.00,,,0.00,WUHU216HW,2013-05-23 04:37:00,
2013-05-23 00:39:00,61.6,58.7,29.93,North,0,0.0,0.0,90,0.00,,,0.00,WUHU216HW,2013-05-23 04:39:00,
2013-05-23 00:42:00,61.6,58.7,29.93,North,0,0.0,0.0,90,0.00,,,0.00,WUHU216HW,2013-05-23 04:42:00,
2013-05-23 00:43:00,61.6,58.7,29.93,North,0,0.0,0.0,90,0.00,,,0.00,WUHU216HW,2013-05-23 04:43:00,
2013-05-23 00:44:00,61.6,59.0,29.93,North,0,0.0,0.0,91,0.00,,,0.00,WUHU216HW,2013-05-23 04:44:00,
2013-05-23 00:47:00,61.6,59.0,29.93,North,0,0.0,0.0,91,0.00,,,0.00,WUHU216HW,2013-05-23 04:47:00,
2013-05-23 00:48:00,61.6,59.0,29.93,North,0,0.0,0.0,91,0.00,,,0.00,WUHU216HW,2013-05-23 04:48:00,
2013-05-23 00:49:00,61.7,59.1,29.93,North,0,0.0,0.0,91,0.00,,,0.00,WUHU216HW,2013-05-23 04:49:00,
2013-05-23 00:53:00,61.9,59.6,29.93,North,0,0.0,0.0,92,0.00,,,0.00,WUHU216HW,2013-05-23 04:53:00,
2013-05-23 00:55:00,62.1,59.8,29.93,North,0,0.0,0.0,92,0.00,,,0.00,WUHU216HW,2013-05-23 04:55:00,
2013-05-23 00:58:00,62.1,59.8,29.92,North,0,0.0,0.0,92,0.00,,,0.00,WUHU216HW,2013-05-23 04:58:00,
2013-05-23 01:00:00,62.1,59.8,29.92,North,0,0.0,0.0,92,0.00,,,0.00,WUHU216HW,2013-05-23 05:00:00,
2013-05-23 01:03:00,61.9,59.6,29.93,North,0,0.0,0.0,92,0.00,,,0.00,WUHU216HW,2013-05-23 05:03:00,
2013-05-23 01:05:00,61.9,59.6,29.92,North,0,0.0,0.0,92,0.00,,,0.00,WUHU216HW,2013-05-23 05:05:00,
2013-05-23 01:08:00,61.7,59.4,29.92,North,0,0.0,0.0,92,0.00,,,0.00,WUHU216HW,2013-05-23 05:08:00,
2013-05-23 01:09:00,61.6,59.0,29.92,North,0,0.0,0.0,91,0.00,,,0.00,WUHU216HW,2013-05-23 05:09:00,
2013-05-23 01:11:00,61.6,59.0,29.92,North,0,0.0,0.0,91,0.00,,,0.00,WUHU216HW,2013-05-23 05:11:00,
2013-05-23 01:13:00,61.6,59.0,29.92,North,0,0.0,0.0,91,0.00,,,0.00,WUHU216HW,2013-05-23 05:13:00,
2013-05-23 01:14:00,61.4,58.8,29.92,North,0,0.0,0.0,91,0.00,,,0.00,WUHU216HW,2013-05-23 05:14:00,
2013-05-23 01:16:00,61.4,58.8,29.92,North,0,0.0,0.0,91,0.00,,,0.00,WUHU216HW,2013-05-23 05:16:00,
2013-05-23 01:18:00,61.4,58.8,29.92,North,0,0.0,0.0,91,0.00,,,0.00,WUHU216HW,2013-05-23 05:18:00,
2013-05-23 01:19:00,61.0,58.4,29.92,North,0,0.0,0.0,91,0.00,,,0.00,WUHU216HW,2013-05-23 05:19:00,
2013-05-23 01:21:00,61.0,58.4,29.92,North,0,0.0,0.0,91,0.00,,,0.00,WUHU216HW,2013-05-23 05:21:00,
2013-05-23 01:23:00,61.0,58.4,29.92,North,0,0.0,0.0,91,0.00,,,0.00,WUHU216HW,2013-05-23 05:23:00,
2013-05-23 01:24:00,61.0,58.4,29.92,North,0,0.0,0.0,91,0.00,,,0.00,WUHU216HW,2013-05-23 05:24:00,
2013-05-23 01:26:00,61.0,58.4,29.92,North,0,0.0,0.0,91,0.00,,,0.00,WUHU216HW,2013-05-23 05:26:00,
2013-05-23 01:28:00,60.8,58.2,29.91,North,0,0.0,0.0,91,0.00,,,0.00,WUHU216HW,2013-05-23 05:28:00,
2013-05-23 01:29:00,60.8,58.2,29.91,North,0,0.0,0.0,91,0.00,,,0.00,WUHU216HW,2013-05-23 05:29:00,
2013-05-23 01:30:00,60.8,58.2,29.91,North,0,0.0,0.0,91,0.00,,,0.00,WUHU216HW,2013-05-23 05:30:00,
2013-05-23 01:31:00,60.8,58.2,29.91,North,0,0.0,0.0,91,0.00,,,0.00,WUHU216HW,2013-05-23 05:31:00,
2013-05-23 01:33:00,61.0,58.4,29.91,North,0,0.0,0.0,91,0.00,,,0.00,WUHU216HW,2013-05-23 05:33:00,
2013-05-23 01:34:00,61.0,58.4,29.91,North,0,0.0,0.0,91,0.00,,,0.00,WUHU216HW,2013-05-23 05:34:00,
2013-05-23 01:35:00,61.0,58.4,29.91,North,0,0.0,0.0,91,0.00,,,0.00,WUHU216HW,2013-05-23 05:35:00,
2013-05-23 01:36:00,61.0,58.4,29.91,North,0,0.0,0.0,91,0.00,,,0.00,WUHU216HW,2013-05-23 05:36:00,
2013-05-23 01:39:00,60.8,58.2,29.91,North,0,0.0,0.0,91,0.00,,,0.00,WUHU216HW,2013-05-23 05:39:00,
2013-05-23 01:41:00,60.8,58.2,29.91,North,0,0.0,0.0,91,0.00,,,0.00,WUHU216HW,2013-05-23 05:41:00,
2013-05-23 01:44:00,60.8,58.2,29.91,North,0,0.0,0.0,91,0.00,,,0.00,WUHU216HW,2013-05-23 05:44:00,
2013-05-23 01:46:00,60.8,58.2,29.91,North,0,0.0,0.0,91,0.00,,,0.00,WUHU216HW,2013-05-23 05:46:00,
2013-05-23 01:49:00,60.8,58.5,29.91,North,0,0.0,0.0,92,0.00,,,0.00,WUHU216HW,2013-05-23 05:49:00,
2013-05-23 01:50:00,60.8,58.5,29.91,North,0,0.0,0.0,92,0.00,,,0.00,WUHU216HW,2013-05-23 05:50:00,
2013-05-23 01:51:00,60.8,58.5,29.91,North,0,0.0,0.0,92,0.00,,,0.00,WUHU216HW,2013-05-23 05:51:00,
2013-05-23 01:54:00,61.0,58.7,29.91,North,0,0.0,0.0,92,0.00,,,0.00,WUHU216HW,2013-05-23 05:54:00,
2013-05-23 01:55:00,61.0,58.7,29.91,North,0,0.0,0.0,92,0.00,,,0.00,WUHU216HW,2013-05-23 05:55:00,
2013-05-23 01:56:00,61.0,58.7,29.91,North,0,0.0,0.0,92,0.00,,,0.00,WUHU216HW,2013-05-23 05:56:00,
2013-05-23 01:57:00,61.0,58.7,29.91,North,0,0.0,0.0,92,0.00,,,0.00,WUHU216HW,2013-05-23 05:57:00,
2013-05-23 01:59:00,61.0,58.7,29.91,North,0,0.0,0.0,92,0.00,,,0.00,WUHU216HW,2013-05-23 05:59:00,
2013-05-23 02:00:00,61.0,58.7,29.91,North,0,0.0,0.0,92,0.00,,,0.00,WUHU216HW,2013-05-23 06:00:00,
2013-05-23 02:01:00,60.8,58.5,29.91,North,0,0.0,0.0,92,0.00,,,0.00,WUHU216HW,2013-05-23 06:01:00,
2013-05-23 02:02:00,60.8,58.5,29.91,North,0,0.0,0.0,92,0.00,,,0.00,WUHU216HW,2013-05-23 06:02:00,
2013-05-23 02:04:00,60.7,58.1,29.91,North,0,0.0,0.0,91,0.00,,,0.00,WUHU216HW,2013-05-23 06:04:00,
2013-05-23 02:05:00,60.7,58.1,29.91,North,0,0.0,0.0,91,0.00,,,0.00,WUHU216HW,2013-05-23 06:05:00,
2013-05-23 02:06:00,60.5,57.9,29.91,North,0,0.0,0.0,91,0.00,,,0.00,WUHU216HW,2013-05-23 06:06:00,
2013-05-23 02:07:00,60.5,57.9,29.91,North,0,0.0,0.0,91,0.00,,,0.00,WUHU216HW,2013-05-23 06:07:00,
2013-05-23 02:09:00,60.1,57.5,29.91,North,0,0.0,0.0,91,0.00,,,0.00,WUHU216HW,2013-05-23 06:09:00,
2013-05-23 02:10:00,60.1,57.5,29.91,North,0,0.0,0.0,91,0.00,,,0.00,WUHU216HW,2013-05-23 06:10:00,
2013-05-23 02:11:00,60.1,57.5,29.91,North,0,0.0,0.0,91,0.00,,,0.00,WUHU216HW,2013-05-23 06:11:00,
2013-05-23 02:12:00,60.1,57.5,29.91,North,0,0.0,0.0,91,0.00,,,0.00,WUHU216HW,2013-05-23 06:12:00,
2013-05-23 02:14:00,60.1,57.5,29.91,North,0,0.0,0.0,91,0.00,,,0.00,WUHU216HW,2013-05-23 06:14:00,
2013-05-23 02:15:00,60.1,57.5,29.91,North,0,0.0,0.0,91,0.00,,,0.00,WUHU216HW,2013-05-23 06:15:00,
2013-05-23 02:16:00,60.1,57.5,29.91,North,0,0.0,0.0,91,0.00,,,0.00,WUHU216HW,2013-05-23 06:16:00,
2013-05-23 02:17:00,60.1,57.5,29.90,North,0,0.0,0.0,91,0.00,,,0.00,WUHU216HW,2013-05-23 06:17:00,
2013-05-23 02:20:00,59.9,57.3,29.90,North,0,0.0,0.0,91,0.00,,,0.00,WUHU216HW,2013-05-23 06:20:00,
2013-05-23 02:21:00,59.9,57.6,29.90,North,0,0.0,0.0,92,0.00,,,0.00,WUHU216HW,2013-05-23 06:21:00,
2013-05-23 02:22:00,60.1,57.5,29.90,North,0,0.0,0.0,91,0.00,,,0.00,WUHU216HW,2013-05-23 06:22:00,
2013-05-23 02:23:00,60.1,57.5,29.90,North,0,0.0,0.0,91,0.00,,,0.00,WUHU216HW,2013-05-23 06:23:00,
2013-05-23 02:25:00,60.1,57.8,29.90,North,0,0.0,0.0,92,0.00,,,0.00,WUHU216HW,2013-05-23 06:25:00,
2013-05-23 02:26:00,60.1,57.8,29.90,North,0,0.0,0.0,92,0.00,,,0.00,WUHU216HW,2013-05-23 06:26:00,
2013-05-23 02:28:00,60.1,57.8,29.90,North,0,0.0,0.0,92,0.00,,,0.00,WUHU216HW,2013-05-23 06:28:00,
2013-05-23 02:30:00,60.1,57.8,29.90,North,0,0.0,0.0,92,0.00,,,0.00,WUHU216HW,2013-05-23 06:30:00,
2013-05-23 02:32:00,60.5,58.5,29.90,North,0,0.0,0.0,93,0.00,,,0.00,WUHU216HW,2013-05-23 06:32:00,
2013-05-23 02:33:00,60.7,58.7,29.90,North,0,0.0,0.0,93,0.00,,,0.00,WUHU216HW,2013-05-23 06:33:00,
2013-05-23 02:35:00,60.8,58.9,29.90,North,0,0.0,0.0,93,0.00,,,0.00,WUHU216HW,2013-05-23 06:35:00,
2013-05-23 02:37:00,61.2,59.2,29.90,North,0,0.0,0.0,93,0.00,,,0.00,WUHU216HW,2013-05-23 06:37:00,
2013-05-23 02:39:00,61.2,59.2,29.90,North,0,0.0,0.0,93,0.00,,,0.00,WUHU216HW,2013-05-23 06:39:00,
2013-05-23 02:40:00,61.4,59.4,29.90,North,0,0.0,0.0,93,0.00,,,0.00,WUHU216HW,2013-05-23 06:40:00,
2013-05-23 02:41:00,61.4,59.4,29.90,North,0,0.0,0.0,93,0.00,,,0.00,WUHU216HW,2013-05-23 06:41:00,
2013-05-23 02:42:00,61.6,59.6,29.90,North,0,0.0,0.0,93,0.00,,,0.00,WUHU216HW,2013-05-23 06:42:00,
2013-05-23 02:44:00,61.6,59.6,29.90,North,0,0.0,0.0,93,0.00,,,0.00,WUHU216HW,2013-05-23 06:44:00,
2013-05-23 02:45:00,61.7,59.8,29.90,North,0,0.0,0.0,93,0.00,,,0.00,WUHU216HW,2013-05-23 06:45:00,
2013-05-23 02:46:00,61.7,59.8,29.90,North,0,0.0,0.0,93,0.00,,,0.00,WUHU216HW,2013-05-23 06:46:00,
2013-05-23 02:47:00,61.7,59.8,29.90,North,0,0.0,0.0,93,0.00,,,0.00,WUHU216HW,2013-05-23 06:47:00,
2013-05-23 02:49:00,61.7,59.8,29.90,North,0,0.0,0.0,93,0.00,,,0.00,WUHU216HW,2013-05-23 06:49:00,
2013-05-23 02:50:00,61.7,59.8,29.90,North,0,0.0,0.0,93,0.00,,,0.00,WUHU216HW,2013-05-23 06:50:00,
2013-05-23 02:51:00,61.7,59.8,29.90,North,0,0.0,0.0,93,0.00,,,0.00,WUHU216HW,2013-05-23 06:51:00,
2013-05-23 02:52:00,61.7,59.4,29.90,North,0,0.0,0.0,92,0.00,,,0.00,WUHU216HW,2013-05-23 06:52:00,
2013-05-23 02:54:00,61.6,59.2,29.90,North,0,0.0,0.0,92,0.00,,,0.00,WUHU216HW,2013-05-23 06:54:00,
2013-05-23 02:55:00,61.6,59.2,29.90,North,0,0.0,0.0,92,0.00,,,0.00,WUHU216HW,2013-05-23 06:55:00,
2013-05-23 02:56:00,61.6,59.2,29.90,North,0,0.0,0.0,92,0.00,,,0.00,WUHU216HW,2013-05-23 06:56:00,
2013-05-23 02:57:00,61.6,59.2,29.90,North,0,0.0,0.0,92,0.00,,,0.00,WUHU216HW,2013-05-23 06:57:00,
2013-05-23 03:00:00,61.6,59.6,29.90,North,0,0.0,0.0,93,0.00,,,0.00,WUHU216HW,2013-05-23 07:00:00,
2013-05-23 03:01:00,61.7,59.8,29.90,North,0,0.0,0.0,93,0.00,,,0.00,WUHU216HW,2013-05-23 07:01:00,
2013-05-23 03:03:00,61.7,59.8,29.90,North,0,0.0,0.0,93,0.00,,,0.00,WUHU216HW,2013-05-23 07:03:00,
2013-05-23 03:05:00,61.9,60.0,29.90,North,0,0.0,0.0,93,0.00,,,0.00,WUHU216HW,2013-05-23 07:05:00,
2013-05-23 03:06:00,61.9,60.0,29.90,North,0,0.0,0.0,93,0.00,,,0.00,WUHU216HW,2013-05-23 07:06:00,
2013-05-23 03:08:00,62.1,60.1,29.90,North,0,0.0,0.0,93,0.00,,,0.00,WUHU216HW,2013-05-23 07:08:00,
2013-05-23 03:10:00,62.3,60.3,29.90,North,0,0.0,0.0,93,0.00,,,0.00,WUHU216HW,2013-05-23 07:10:00,
2013-05-23 03:11:00,62.5,60.5,29.90,North,0,0.0,0.0,93,0.00,,,0.00,WUHU216HW,2013-05-23 07:11:00,
2013-05-23 03:12:00,62.5,60.5,29.90,North,0,0.0,0.0,93,0.00,,,0.00,WUHU216HW,2013-05-23 07:12:00,
2013-05-23 03:13:00,62.6,60.7,29.90,North,0,0.0,0.0,93,0.00,,,0.00,WUHU216HW,2013-05-23 07:13:00,
2013-05-23 03:15:00,62.8,60.9,29.90,North,0,0.0,0.0,93,0.00,,,0.00,WUHU216HW,2013-05-23 07:15:00,
2013-05-23 03:16:00,62.8,60.9,29.90,North,0,0.0,0.0,93,0.00,,,0.00,WUHU216HW,2013-05-23 07:16:00,
2013-05-23 03:17:00,63.0,61.0,29.90,North,0,0.0,0.0,93,0.00,,,0.00,WUHU216HW,2013-05-23 07:17:00,
2013-05-23 03:18:00,63.0,61.0,29.90,North,0,0.0,0.0,93,0.00,,,0.00,WUHU216HW,2013-05-23 07:18:00,
2013-05-23 03:20:00,63.0,61.0,29.90,North,0,0.0,0.0,93,0.00,,,0.00,WUHU216HW,2013-05-23 07:20:00,
2013-05-23 03:21:00,63.2,61.2,29.90,North,0,0.0,0.0,93,0.00,,,0.00,WUHU216HW,2013-05-23 07:21:00,
2013-05-23 03:22:00,63.4,61.4,29.90,North,0,0.0,0.0,93,0.00,,,0.00,WUHU216HW,2013-05-23 07:22:00,
2013-05-23 03:23:00,63.4,61.4,29.91,North,0,0.0,0.0,93,0.00,,,0.00,WUHU216HW,2013-05-23 07:23:00,
2013-05-23 03:25:00,63.4,61.4,29.91,North,0,0.0,0.0,93,0.00,,,0.00,WUHU216HW,2013-05-23 07:25:00,
2013-05-23 03:26:00,63.4,61.4,29.91,North,0,0.0,0.0,93,0.00,,,0.00,WUHU216HW,2013-05-23 07:26:00,
2013-05-23 03:27:00,63.2,61.2,29.90,North,0,0.0,0.0,93,0.00,,,0.00,WUHU216HW,2013-05-23 07:27:00,
2013-05-23 03:29:00,63.0,61.0,29.91,North,0,0.0,0.0,93,0.00,,,0.00,WUHU216HW,2013-05-23 07:29:00,
2013-05-23 03:30:00,63.0,61.0,29.91,North,0,0.0,0.0,93,0.00,,,0.00,WUHU216HW,2013-05-23 07:30:00,
2013-05-23 03:31:00,63.0,61.0,29.91,North,0,0.0,0.0,93,0.00,,,0.00,WUHU216HW,2013-05-23 07:31:00,
2013-05-23 03:33:00,63.0,61.0,29.91,North,0,0.0,0.0,93,0.00,,,0.00,WUHU216HW,2013-05-23 07:33:00,
2013-05-23 03:34:00,63.0,61.0,29.91,North,0,0.0,0.0,93,0.00,,,0.00,WUHU216HW,2013-05-23 07:34:00,
2013-05-23 03:35:00,63.2,61.2,29.91,North,0,0.0,0.0,93,0.00,,,0.00,WUHU216HW,2013-05-23 07:35:00,
2013-05-23 03:36:00,63.4,61.4,29.91,North,0,0.0,0.0,93,0.00,,,0.00,WUHU216HW,2013-05-23 07:36:00,
2013-05-23 03:39:00,63.4,61.4,29.91,North,0,0.0,0.0,93,0.00,,,0.00,WUHU216HW,2013-05-23 07:39:00,
2013-05-23 03:41:00,63.4,61.4,29.91,North,0,0.0,0.0,93,0.00,,,0.00,WUHU216HW,2013-05-23 07:41:00,
2013-05-23 03:44:00,63.4,61.4,29.91,North,0,0.0,0.0,93,0.00,,,0.00,WUHU216HW,2013-05-23 07:44:00,
2013-05-23 03:45:00,63.4,61.4,29.91,North,0,0.0,0.0,93,0.00,,,0.00,WUHU216HW,2013-05-23 07:45:00,
2013-05-23 03:46:00,63.4,61.4,29.91,North,0,0.0,0.0,93,0.00,,,0.00,WUHU216HW,2013-05-23 07:46:00,
2013-05-23 03:47:00,63.4,61.4,29.91,North,0,0.0,0.0,93,0.00,,,0.00,WUHU216HW,2013-05-23 07:47:00,
2013-05-23 03:50:00,63.5,61.6,29.91,North,0,0.0,0.0,93,0.00,,,0.00,WUHU216HW,2013-05-23 07:50:00,
2013-05-23 03:51:00,63.5,61.6,29.91,North,0,0.0,0.0,93,0.00,,,0.00,WUHU216HW,2013-05-23 07:51:00,
2013-05-23 03:53:00,63.5,61.6,29.91,North,0,0.0,0.0,93,0.00,,,0.00,WUHU216HW,2013-05-23 07:53:00,
2013-05-23 03:55:00,63.5,61.6,29.91,North,0,0.0,0.0,93,0.00,,,0.00,WUHU216HW,2013-05-23 07:55:00,
2013-05-23 03:56:00,63.4,61.4,29.91,North,0,0.0,0.0,93,0.00,,,0.00,WUHU216HW,2013-05-23 07:56:00,
2013-05-23 03:57:00,63.4,61.4,29.91,North,0,0.0,0.0,93,0.00,,,0.00,WUHU216HW,2013-05-23 07:57:00,
2013-05-23 03:58:00,63.4,61.4,29.91,North,0,0.0,0.0,93,0.00,,,0.00,WUHU216HW,2013-05-23 07:58:00,
2013-05-23 04:00:00,63.4,61.4,29.91,North,0,0.0,0.0,93,0.00,,,0.00,WUHU216HW,2013-05-23 08:00:00,
2013-05-23 04:01:00,63.5,61.6,29.91,North,0,0.0,0.0,93,0.00,,,0.00,WUHU216HW,2013-05-23 08:01:00,
2013-05-23 04:02:00,63.7,61.8,29.91,North,0,0.0,0.0,93,0.00,,,0.00,WUHU216HW,2013-05-23 08:02:00,
2013-05-23 04:03:00,63.7,61.8,29.91,North,0,0.0,0.0,93,0.00,,,0.00,WUHU216HW,2013-05-23 08:03:00,
2013-05-23 04:05:00,63.9,61.9,29.91,North,0,0.0,0.0,93,0.00,,,0.00,WUHU216HW,2013-05-23 08:05:00,
2013-05-23 04:06:00,63.9,61.9,29.91,North,0,0.0,0.0,93,0.00,,,0.00,WUHU216HW,2013-05-23 08:06:00,
2013-05-23 04:07:00,63.9,61.6,29.91,North,0,0.0,0.0,92,0.00,,,0.00,WUHU216HW,2013-05-23 08:07:00,
2013-05-23 04:08:00,63.9,61.6,29.91,North,0,0.0,0.0,92,0.00,,,0.00,WUHU216HW,2013-05-23 08:08:00,
2013-05-23 04:10:00,63.7,61.4,29.91,North,0,0.0,0.0,92,0.00,,,0.00,WUHU216HW,2013-05-23 08:10:00,
2013-05-23 04:11:00,63.7,61.4,29.91,North,0,0.0,0.0,92,0.00,,,0.00,WUHU216HW,2013-05-23 08:11:00,
2013-05-23 04:12:00,63.7,61.8,29.91,North,0,0.0,0.0,93,0.00,,,0.00,WUHU216HW,2013-05-23 08:12:00,
2013-05-23 04:13:00,63.9,61.9,29.91,North,0,0.0,0.0,93,0.00,,,0.00,WUHU216HW,2013-05-23 08:13:00,
2013-05-23 04:16:00,63.9,61.9,29.91,North,0,0.0,0.0,93,0.00,,,0.00,WUHU216HW,2013-05-23 08:16:00,
2013-05-23 04:17:00,63.9,61.9,29.91,North,0,0.0,0.0,93,0.00,,,0.00,WUHU216HW,2013-05-23 08:17:00,
2013-05-23 04:18:00,64.1,61.7,29.91,North,0,0.0,0.0,92,0.00,,,0.00,WUHU216HW,2013-05-23 08:18:00,
2013-05-23 04:19:00,64.1,61.7,29.91,North,0,0.0,0.0,92,0.00,,,0.00,WUHU216HW,2013-05-23 08:19:00,
2013-05-23 04:21:00,64.1,61.7,29.91,North,0,0.0,0.0,92,0.00,,,0.00,WUHU216HW,2013-05-23 08:21:00,
2013-05-23 04:22:00,64.1,61.7,29.91,North,0,0.0,0.0,92,0.00,,,0.00,WUHU216HW,2013-05-23 08:22:00,
2013-05-23 04:24:00,63.7,61.4,29.91,North,0,0.0,0.0,92,0.00,,,0.00,WUHU216HW,2013-05-23 08:24:00,
2013-05-23 04:26:00,63.4,61.0,29.91,North,0,0.0,0.0,92,0.00,,,0.00,WUHU216HW,2013-05-23 08:26:00,
2013-05-23 04:27:00,63.4,61.0,29.91,North,0,0.0,0.0,92,0.00,,,0.00,WUHU216HW,2013-05-23 08:27:00,
2013-05-23 04:29:00,63.0,60.7,29.91,North,0,0.0,0.0,92,0.00,,,0.00,WUHU216HW,2013-05-23 08:29:00,
2013-05-23 04:31:00,63.0,60.7,29.91,North,0,0.0,0.0,92,0.00,,,0.00,WUHU216HW,2013-05-23 08:31:00,
2013-05-23 04:32:00,63.0,60.7,29.91,North,0,0.0,0.0,92,0.00,,,0.00,WUHU216HW,2013-05-23 08:32:00,
2013-05-23 04:33:00,62.8,60.5,29.91,North,0,0.0,0.0,92,0.00,,,0.00,WUHU216HW,2013-05-23 08:33:00,
2013-05-23 04:34:00,62.8,60.5,29.91,North,0,0.0,0.0,92,0.00,,,0.00,WUHU216HW,2013-05-23 08:34:00,
2013-05-23 04:37:00,62.5,60.1,29.91,North,0,0.0,0.0,92,0.00,,,0.00,WUHU216HW,2013-05-23 08:37:00,
2013-05-23 04:39:00,62.3,59.9,29.91,North,0,0.0,0.0,92,0.00,,,0.00,WUHU216HW,2013-05-23 08:39:00,
2013-05-23 04:42:00,62.3,59.9,29.91,North,0,0.0,0.0,92,0.00,,,0.00,WUHU216HW,2013-05-23 08:42:00,
2013-05-23 04:44:00,62.1,59.8,29.91,North,0,0.0,0.0,92,0.00,,,0.00,WUHU216HW,2013-05-23 08:44:00,
2013-05-23 04:45:00,62.1,59.8,29.91,North,0,0.0,0.0,92,0.00,,,0.00,WUHU216HW,2013-05-23 08:45:00,
2013-05-23 04:47:00,62.1,59.8,29.91,North,0,0.0,0.0,92,0.00,,,0.00,WUHU216HW,2013-05-23 08:47:00,
2013-05-23 04:49:00,62.1,59.8,29.91,North,0,0.0,0.0,92,0.00,,,0.00,WUHU216HW,2013-05-23 08:49:00,
2013-05-23 04:50:00,62.1,59.8,29.91,North,0,0.0,0.0,92,0.00,,,0.00,WUHU216HW,2013-05-23 08:50:00,
2013-05-23 04:52:00,61.9,59.6,29.91,North,0,0.0,0.0,92,0.00,,,0.00,WUHU216HW,2013-05-23 08:52:00,
2013-05-23 04:54:00,61.9,59.6,29.91,North,0,0.0,0.0,92,0.00,,,0.00,WUHU216HW,2013-05-23 08:54:00,
2013-05-23 04:55:00,61.9,59.6,29.91,North,0,0.0,0.0,92,0.00,,,0.00,WUHU216HW,2013-05-23 08:55:00,
2013-05-23 04:58:00,61.9,59.6,29.91,North,0,0.0,0.0,92,0.00,,,0.00,WUHU216HW,2013-05-23 08:58:00,
2013-05-23 04:59:00,62.1,60.1,29.91,North,0,0.0,0.0,93,0.00,,,0.00,WUHU216HW,2013-05-23 08:59:00,
2013-05-23 05:00:00,62.1,60.1,29.91,North,0,0.0,0.0,93,0.00,,,0.00,WUHU216HW,2013-05-23 09:00:00,
2013-05-23 05:03:00,62.3,60.3,29.91,North,0,0.0,0.0,93,0.00,,,0.00,WUHU216HW,2013-05-23 09:03:00,
2013-05-23 05:04:00,62.3,60.3,29.91,North,0,0.0,0.0,93,0.00,,,0.00,WUHU216HW,2013-05-23 09:04:00,
2013-05-23 05:05:00,62.3,60.3,29.91,North,0,0.0,0.0,93,0.00,,,0.00,WUHU216HW,2013-05-23 09:05:00,
2013-05-23 05:06:00,62.3,60.3,29.91,North,0,0.0,0.0,93,0.00,,,0.00,WUHU216HW,2013-05-23 09:06:00,
2013-05-23 05:08:00,62.3,60.3,29.91,North,0,0.0,0.0,93,0.00,,,0.00,WUHU216HW,2013-05-23 09:08:00,
2013-05-23 05:10:00,62.3,60.3,29.91,North,0,0.0,0.0,93,0.00,,,0.00,WUHU216HW,2013-05-23 09:10:00,
2013-05-23 05:11:00,62.5,60.5,29.91,North,0,0.0,0.0,93,0.00,,,0.00,WUHU216HW,2013-05-23 09:11:00,
2013-05-23 05:13:00,62.6,60.7,29.91,North,0,0.0,0.0,93,0.00,,,0.00,WUHU216HW,2013-05-23 09:13:00,
2013-05-23 05:15:00,62.6,60.7,29.91,North,0,0.0,0.0,93,0.00,,,0.00,WUHU216HW,2013-05-23 09:15:00,
2013-05-23 05:16:00,62.6,60.7,29.91,North,0,0.0,0.0,93,0.00,,,0.00,WUHU216HW,2013-05-23 09:16:00,
2013-05-23 05:18:00,62.5,60.5,29.91,North,0,0.0,0.0,93,0.00,,,0.00,WUHU216HW,2013-05-23 09:18:00,
2013-05-23 05:20:00,62.3,60.3,29.91,North,0,0.0,0.0,93,0.00,,,0.00,WUHU216HW,2013-05-23 09:20:00,
2013-05-23 05:22:00,62.3,60.3,29.91,North,0,0.0,0.0,93,0.00,,,0.00,WUHU216HW,2013-05-23 09:22:00,
2013-05-23 05:23:00,62.3,60.3,29.91,North,0,0.0,0.0,93,0.00,,,0.00,WUHU216HW,2013-05-23 09:23:00,
2013-05-23 05:24:00,62.3,60.3,29.91,North,0,0.0,0.0,93,0.00,,,0.00,WUHU216HW,2013-05-23 09:24:00,
2013-05-23 05:25:00,62.3,59.9,29.91,North,0,0.0,0.0,92,0.00,,,0.00,WUHU216HW,2013-05-23 09:25:00,
2013-05-23 05:26:00,62.1,59.8,29.91,North,0,0.0,0.0,92,0.00,,,0.00,WUHU216HW,2013-05-23 09:26:00,
2013-05-23 05:27:00,62.1,59.8,29.91,North,0,0.0,0.0,92,0.00,,,0.00,WUHU216HW,2013-05-23 09:27:00,
2013-05-23 05:28:00,62.3,60.3,29.91,North,0,0.0,0.0,93,0.00,,,0.00,WUHU216HW,2013-05-23 09:28:00,
2013-05-23 05:29:00,62.3,60.3,29.91,North,0,0.0,0.0,93,0.00,,,0.00,WUHU216HW,2013-05-23 09:29:00,
2013-05-23 05:30:00,62.3,60.3,29.91,North,0,0.0,0.0,93,0.00,,,0.00,WUHU216HW,2013-05-23 09:30:00,
2013-05-23 05:31:00,62.3,60.3,29.91,North,0,0.0,0.0,93,0.00,,,0.00,WUHU216HW,2013-05-23 09:31:00,
2013-05-23 05:32:00,62.1,60.1,29.91,North,0,0.0,0.0,93,0.00,,,0.00,WUHU216HW,2013-05-23 09:32:00,
2013-05-23 05:34:00,62.1,60.1,29.91,North,0,0.0,0.0,93,0.00,,,0.00,WUHU216HW,2013-05-23 09:34:00,
2013-05-23 05:35:00,62.1,60.1,29.91,North,0,0.0,0.0,93,0.00,,,0.00,WUHU216HW,2013-05-23 09:35:00,
2013-05-23 05:36:00,62.3,60.3,29.91,North,0,0.0,0.0,93,0.00,,,0.00,WUHU216HW,2013-05-23 09:36:00,
2013-05-23 05:37:00,62.3,60.3,29.92,North,0,0.0,0.0,93,0.00,,,0.00,WUHU216HW,2013-05-23 09:37:00,
2013-05-23 05:39:00,62.3,60.3,29.91,North,0,0.0,0.0,93,0.00,,,0.00,WUHU216HW,2013-05-23 09:39:00,
2013-05-23 05:40:00,62.3,60.3,29.92,North,0,0.0,0.0,93,0.00,,,0.00,WUHU216HW,2013-05-23 09:40:00,
2013-05-23 05:42:00,62.3,60.3,29.92,North,0,0.0,0.0,93,0.00,,,0.00,WUHU216HW,2013-05-23 09:42:00,
2013-05-23 05:44:00,62.3,60.3,29.92,North,0,0.0,0.0,93,0.00,,,0.00,WUHU216HW,2013-05-23 09:44:00,
2013-05-23 05:47:00,62.3,60.3,29.92,North,0,0.0,0.0,93,0.00,,,0.00,WUHU216HW,2013-05-23 09:47:00,
2013-05-23 05:48:00,62.3,60.3,29.92,North,0,0.0,0.0,93,0.00,,,0.00,WUHU216HW,2013-05-23 09:48:00,
2013-05-23 05:49:00,62.3,60.3,29.92,North,0,0.0,0.0,93,0.00,,,0.00,WUHU216HW,2013-05-23 09:49:00,
2013-05-23 05:52:00,62.3,60.3,29.92,North,0,0.0,0.0,93,0.00,,,0.00,WUHU216HW,2013-05-23 09:52:00,
2013-05-23 05:53:00,62.3,60.3,29.92,North,0,0.0,0.0,93,0.00,,,0.00,WUHU216HW,2013-05-23 09:53:00,
2013-05-23 05:54:00,62.3,60.3,29.92,North,0,0.0,0.0,93,0.00,,,0.00,WUHU216HW,2013-05-23 09:54:00,
2013-05-23 05:57:00,62.1,60.1,29.92,North,0,0.0,0.0,93,0.00,,,0.00,WUHU216HW,2013-05-23 09:57:00,
2013-05-23 05:58:00,61.9,60.0,29.92,North,0,0.0,0.0,93,0.00,,,0.00,WUHU216HW,2013-05-23 09:58:00,
2013-05-23 05:59:00,61.9,60.0,29.92,North,0,0.0,0.0,93,0.00,,,0.00,WUHU216HW,2013-05-23 09:59:00,
2013-05-23 06:00:00,61.9,60.0,29.92,North,0,0.0,0.0,93,0.00,,,0.00,WUHU216HW,2013-05-23 10:00:00,
2013-05-23 06:02:00,61.9,60.0,29.92,North,0,0.0,0.0,93,0.00,,,0.00,WUHU216HW,2013-05-23 10:02:00,
2013-05-23 06:03:00,61.9,60.0,29.92,North,0,0.0,0.0,93,0.00,,,0.00,WUHU216HW,2013-05-23 10:03:00,
2013-05-23 06:04:00,61.9,60.0,29.92,North,0,0.0,0.0,93,0.00,,,0.00,WUHU216HW,2013-05-23 10:04:00,
2013-05-23 06:05:00,61.9,60.0,29.92,North,0,0.0,0.0,93,0.00,,,0.00,WUHU216HW,2013-05-23 10:05:00,
2013-05-23 06:07:00,62.1,60.1,29.92,North,0,0.0,0.0,93,0.00,,,0.00,WUHU216HW,2013-05-23 10:07:00,
2013-05-23 06:08:00,62.1,60.1,29.92,North,0,0.0,0.0,93,0.00,,,0.00,WUHU216HW,2013-05-23 10:08:00,
2013-05-23 06:09:00,62.1,60.1,29.92,North,0,0.0,0.0,93,0.00,,,0.00,WUHU216HW,2013-05-23 10:09:00,
2013-05-23 06:10:00,62.1,60.1,29.92,North,0,0.0,0.0,93,0.00,,,0.00,WUHU216HW,2013-05-23 10:10:00,
2013-05-23 06:11:00,62.1,60.1,29.92,North,0,0.0,0.0,93,0.00,,,0.00,WUHU216HW,2013-05-23 10:11:00,
2013-05-23 06:12:00,62.1,60.1,29.93,North,0,0.0,0.0,93,0.00,,,0.00,WUHU216HW,2013-05-23 10:12:00,
2013-05-23 06:14:00,62.1,60.1,29.92,North,0,0.0,0.0,93,0.00,,,0.00,WUHU216HW,2013-05-23 10:14:00,
2013-05-23 06:15:00,62.1,60.1,29.93,North,0,0.0,0.0,93,0.00,,,0.00,WUHU216HW,2013-05-23 10:15:00,
2013-05-23 06:16:00,62.1,60.1,29.93,North,0,0.0,0.0,93,0.00,,,0.00,WUHU216HW,2013-05-23 10:16:00,
2013-05-23 06:17:00,62.1,60.1,29.93,North,0,0.0,0.0,93,0.00,,,0.00,WUHU216HW,2013-05-23 10:17:00,
2013-05-23 06:19:00,62.3,60.6,29.93,North,0,0.0,0.0,94,0.00,,,0.00,WUHU216HW,2013-05-23 10:19:00,
2013-05-23 06:21:00,62.3,60.6,29.93,North,0,0.0,0.0,94,0.00,,,0.00,WUHU216HW,2013-05-23 10:21:00,
2013-05-23 06:23:00,62.3,60.6,29.93,North,0,0.0,0.0,94,0.00,,,0.00,WUHU216HW,2013-05-23 10:23:00,
2013-05-23 06:24:00,62.5,60.8,29.93,North,0,0.0,0.0,94,0.00,,,0.00,WUHU216HW,2013-05-23 10:24:00,
2013-05-23 06:25:00,62.5,60.8,29.93,North,0,0.0,0.0,94,0.00,,,0.00,WUHU216HW,2013-05-23 10:25:00,
2013-05-23 06:26:00,62.6,60.9,29.93,North,0,0.0,0.0,94,0.00,,,0.00,WUHU216HW,2013-05-23 10:26:00,
2013-05-23 06:28:00,62.8,61.1,29.93,North,0,0.0,0.0,94,0.00,,,0.00,WUHU216HW,2013-05-23 10:28:00,
2013-05-23 06:29:00,62.8,61.1,29.93,North,0,0.0,0.0,94,0.00,,,0.00,WUHU216HW,2013-05-23 10:29:00,
2013-05-23 06:30:00,62.8,61.1,29.93,North,0,0.0,0.0,94,0.00,,,0.00,WUHU216HW,2013-05-23 10:30:00,
2013-05-23 06:31:00,62.8,61.1,29.93,North,0,0.0,0.0,94,0.00,,,0.00,WUHU216HW,2013-05-23 10:31:00,
2013-05-23 06:33:00,62.8,61.1,29.93,North,0,0.0,0.0,94,0.00,,,0.00,WUHU216HW,2013-05-23 10:33:00,
2013-05-23 06:35:00,62.8,60.9,29.93,North,0,0.0,0.0,93,0.00,,,0.00,WUHU216HW,2013-05-23 10:35:00,
2013-05-23 06:36:00,62.8,60.9,29.93,North,0,0.0,0.0,93,0.00,,,0.00,WUHU216HW,2013-05-23 10:36:00,
2013-05-23 06:37:00,62.8,60.9,29.93,North,0,0.0,0.0,93,0.00,,,0.00,WUHU216HW,2013-05-23 10:37:00,
2013-05-23 06:38:00,62.6,60.7,29.93,North,0,0.0,0.0,93,0.00,,,0.00,WUHU216HW,2013-05-23 10:38:00,
2013-05-23 06:40:00,62.8,60.9,29.93,North,0,0.0,0.0,93,0.00,,,0.00,WUHU216HW,2013-05-23 10:40:00,
2013-05-23 06:42:00,62.8,60.9,29.93,North,0,0.0,0.0,93,0.00,,,0.00,WUHU216HW,2013-05-23 10:42:00,
2013-05-23 06:43:00,62.8,60.9,29.93,North,0,0.0,0.0,93,0.00,,,0.00,WUHU216HW,2013-05-23 10:43:00,
2013-05-23 06:45:00,62.8,60.9,29.93,North,0,0.0,0.0,93,0.00,,,0.00,WUHU216HW,2013-05-23 10:45:00,
2013-05-23 06:46:00,62.8,60.9,29.93,North,0,0.0,0.0,93,0.00,,,0.00,WUHU216HW,2013-05-23 10:46:00,
2013-05-23 06:47:00,62.8,60.9,29.93,North,0,0.0,0.0,93,0.00,,,0.00,WUHU216HW,2013-05-23 10:47:00,
2013-05-23 06:49:00,62.8,60.9,29.93,North,0,0.0,0.0,93,0.00,,,0.00,WUHU216HW,2013-05-23 10:49:00,
2013-05-23 06:50:00,63.0,61.0,29.93,North,0,0.0,0.0,93,0.00,,,0.00,WUHU216HW,2013-05-23 10:50:00,
2013-05-23 06:51:00,63.0,61.0,29.93,North,0,0.0,0.0,93,0.00,,,0.00,WUHU216HW,2013-05-23 10:51:00,
2013-05-23 06:52:00,63.0,61.0,29.94,North,0,0.0,0.0,93,0.00,,,0.00,WUHU216HW,2013-05-23 10:52:00,
2013-05-23 06:54:00,63.0,61.0,29.93,North,0,0.0,0.0,93,0.00,,,0.00,WUHU216HW,2013-05-23 10:54:00,
2013-05-23 06:55:00,63.0,61.0,29.93,North,0,0.0,0.0,93,0.00,,,0.00,WUHU216HW,2013-05-23 10:55:00,
2013-05-23 06:56:00,63.0,61.0,29.93,North,0,0.0,0.0,93,0.00,,,0.00,WUHU216HW,2013-05-23 10:56:00,
2013-05-23 06:57:00,63.0,61.0,29.93,North,0,0.0,0.0,93,0.00,,,0.00,WUHU216HW,2013-05-23 10:57:00,
2013-05-23 06:59:00,63.0,61.0,29.94,North,0,0.0,0.0,93,0.00,,,0.00,WUHU216HW,2013-05-23 10:59:00,
2013-05-23 07:00:00,63.0,61.0,29.93,North,0,0.0,0.0,93,0.00,,,0.00,WUHU216HW,2013-05-23 11:00:00,
2013-05-23 07:01:00,63.0,61.0,29.94,North,0,0.0,0.0,93,0.00,,,0.00,WUHU216HW,2013-05-23 11:01:00,
2013-05-23 07:02:00,63.0,61.0,29.94,North,0,0.0,0.0,93,0.00,,,0.00,WUHU216HW,2013-05-23 11:02:00,
2013-05-23 07:03:00,63.0,61.0,29.94,North,0,0.0,0.0,93,0.00,,,0.00,WUHU216HW,2013-05-23 11:03:00,
2013-05-23 07:04:00,63.0,61.0,29.94,North,0,0.0,0.0,93,0.00,,,0.00,WUHU216HW,2013-05-23 11:04:00,
2013-05-23 07:05:00,63.0,61.0,29.94,North,0,0.0,0.0,93,0.00,,,0.00,WUHU216HW,2013-05-23 11:05:00,
2013-05-23 07:06:00,63.0,61.0,29.94,North,0,0.0,0.0,93,0.00,,,0.00,WUHU216HW,2013-05-23 11:06:00,
2013-05-23 07:07:00,63.0,61.0,29.94,North,0,0.0,0.0,93,0.00,,,0.00,WUHU216HW,2013-05-23 11:07:00,
2013-05-23 07:08:00,63.0,61.0,29.94,North,0,0.0,0.0,93,0.00,,,0.00,WUHU216HW,2013-05-23 11:08:00,
2013-05-23 07:09:00,63.2,61.2,29.94,North,0,0.0,0.0,93,0.00,,,0.00,WUHU216HW,2013-05-23 11:09:00,
2013-05-23 07:11:00,63.4,61.4,29.94,North,0,0.0,0.0,93,0.00,,,0.00,WUHU216HW,2013-05-23 11:11:00,
2013-05-23 07:13:00,63.2,61.2,29.94,North,0,0.0,0.0,93,0.00,,,0.00,WUHU216HW,2013-05-23 11:13:00,
2013-05-23 07:14:00,63.4,61.4,29.94,North,0,0.0,0.0,93,0.00,,,0.00,WUHU216HW,2013-05-23 11:14:00,
2013-05-23 07:16:00,63.2,61.2,29.94,North,0,0.0,0.0,93,0.00,,,0.00,WUHU216HW,2013-05-23 11:16:00,
2013-05-23 07:18:00,63.0,61.0,29.94,North,0,0.0,0.0,93,0.00,,,0.00,WUHU216HW,2013-05-23 11:18:00,
2013-05-23 07:19:00,63.0,61.0,29.94,North,0,0.0,0.0,93,0.00,,,0.00,WUHU216HW,2013-05-23 11:19:00,
2013-05-23 07:21:00,63.2,61.2,29.94,North,0,0.0,0.0,93,0.00,,,0.00,WUHU216HW,2013-05-23 11:21:00,
2013-05-23 07:22:00,63.2,61.2,29.94,North,0,0.0,0.0,93,0.00,,,0.00,WUHU216HW,2013-05-23 11:22:00,
2013-05-23 07:23:00,63.2,61.2,29.94,North,0,0.0,0.0,93,0.00,,,0.00,WUHU216HW,2013-05-23 11:23:00,
2013-05-23 07:24:00,63.4,61.4,29.94,North,0,0.0,0.0,93,0.00,,,0.00,WUHU216HW,2013-05-23 11:24:00,
2013-05-23 07:26:00,63.2,61.2,29.94,North,0,0.0,0.0,93,0.00,,,0.00,WUHU216HW,2013-05-23 11:26:00,
2013-05-23 07:27:00,63.2,61.2,29.94,North,0,0.0,0.0,93,0.00,,,0.00,WUHU216HW,2013-05-23 11:27:00,
2013-05-23 07:28:00,63.2,61.2,29.94,North,0,0.0,0.0,93,0.00,,,0.00,WUHU216HW,2013-05-23 11:28:00,
2013-05-23 07:29:00,63.2,61.2,29.94,North,0,0.0,0.0,93,0.00,,,0.00,WUHU216HW,2013-05-23 11:29:00,
2013-05-23 07:30:00,63.4,61.4,29.94,North,0,0.0,0.0,93,0.00,,,0.00,WUHU216HW,2013-05-23 11:30:00,
2013-05-23 07:32:00,63.4,61.4,29.94,North,0,0.0,0.0,93,0.00,,,0.00,WUHU216HW,2013-05-23 11:32:00,
2013-05-23 07:34:00,63.5,61.6,29.94,North,0,0.0,0.0,93,0.00,,,0.00,WUHU216HW,2013-05-23 11:34:00,
2013-05-23 07:35:00,63.5,61.6,29.94,North,0,0.0,0.0,93,0.00,,,0.00,WUHU216HW,2013-05-23 11:35:00,
2013-05-23 07:37:00,63.7,61.8,29.94,North,0,0.0,0.0,93,0.00,,,0.00,WUHU216HW,2013-05-23 11:37:00,
2013-05-23 07:38:00,63.7,61.8,29.94,North,0,0.0,0.0,93,0.00,,,0.00,WUHU216HW,2013-05-23 11:38:00,
2013-05-23 07:39:00,63.7,61.8,29.94,North,0,0.0,0.0,93,0.00,,,0.00,WUHU216HW,2013-05-23 11:39:00,
2013-05-23 07:40:00,63.7,61.8,29.94,North,0,0.0,0.0,93,0.00,,,0.00,WUHU216HW,2013-05-23 11:40:00,
2013-05-23 07:42:00,63.9,61.9,29.94,North,0,0.0,0.0,93,0.00,,,0.00,WUHU216HW,2013-05-23 11:42:00,
2013-05-23 07:43:00,64.1,62.1,29.94,North,0,0.0,0.0,93,0.00,,,0.00,WUHU216HW,2013-05-23 11:43:00,
2013-05-23 07:44:00,64.1,62.1,29.94,North,0,0.0,0.0,93,0.00,,,0.00,WUHU216HW,2013-05-23 11:44:00,
2013-05-23 07:45:00,64.1,62.1,29.94,North,0,0.0,0.0,93,0.00,,,0.00,WUHU216HW,2013-05-23 11:45:00,
2013-05-23 07:48:00,64.3,61.9,29.94,North,0,0.0,0.0,92,0.00,,,0.00,WUHU216HW,2013-05-23 11:48:00,
2013-05-23 07:49:00,64.1,61.7,29.94,North,0,0.0,0.0,92,0.00,,,0.00,WUHU216HW,2013-05-23 11:49:00,
2013-05-23 07:50:00,64.1,61.7,29.94,North,0,0.0,0.0,92,0.00,,,0.00,WUHU216HW,2013-05-23 11:50:00,
2013-05-23 07:51:00,64.1,61.7,29.94,North,0,0.0,0.0,92,0.00,,,0.00,WUHU216HW,2013-05-23 11:51:00,
2013-05-23 07:53:00,64.1,61.5,29.94,North,0,0.0,0.0,91,0.00,,,0.00,WUHU216HW,2013-05-23 11:53:00,
2013-05-23 07:54:00,64.1,61.5,29.94,North,0,0.0,0.0,91,0.00,,,0.00,WUHU216HW,2013-05-23 11:54:00,
2013-05-23 07:55:00,64.1,61.5,29.94,North,0,0.0,0.0,91,0.00,,,0.00,WUHU216HW,2013-05-23 11:55:00,
2013-05-23 07:56:00,63.9,61.3,29.94,North,0,0.0,0.0,91,0.00,,,0.00,WUHU216HW,2013-05-23 11:56:00,
2013-05-23 07:59:00,63.7,61.1,29.94,North,0,0.0,0.0,91,0.00,,,0.00,WUHU216HW,2013-05-23 11:59:00,
2013-05-23 08:00:00,63.7,61.1,29.94,North,0,0.0,0.0,91,0.00,,,0.00,WUHU216HW,2013-05-23 12:00:00,
2013-05-23 08:01:00,63.7,61.1,29.94,North,0,0.0,0.0,91,0.00,,,0.00,WUHU216HW,2013-05-23 12:01:00,
2013-05-23 08:04:00,63.7,61.1,29.94,North,0,0.0,0.0,91,0.00,,,0.00,WUHU216HW,2013-05-23 12:04:00,
2013-05-23 08:05:00,63.9,61.3,29.94,North,0,0.0,0.0,91,0.00,,,0.00,WUHU216HW,2013-05-23 12:05:00,
2013-05-23 08:06:00,63.9,61.3,29.94,North,0,0.0,0.0,91,0.00,,,0.00,WUHU216HW,2013-05-23 12:06:00,
2013-05-23 08:09:00,64.4,62.1,29.94,North,0,0.0,0.0,92,0.00,,,0.00,WUHU216HW,2013-05-23 12:09:00,
2013-05-23 08:10:00,64.4,62.1,29.94,North,0,0.0,0.0,92,0.00,,,0.00,WUHU216HW,2013-05-23 12:10:00,
2013-05-23 08:11:00,64.4,62.1,29.94,North,0,0.0,0.0,92,0.00,,,0.00,WUHU216HW,2013-05-23 12:11:00,
2013-05-23 08:15:00,65.2,62.8,29.94,North,0,0.0,0.0,92,0.00,,,0.00,WUHU216HW,2013-05-23 12:15:00,
2013-05-23 08:16:00,65.3,63.0,29.94,North,0,0.0,0.0,92,0.00,,,0.00,WUHU216HW,2013-05-23 12:16:00,
2013-05-23 08:20:00,65.5,63.1,29.94,North,0,0.0,0.0,92,0.00,,,0.00,WUHU216HW,2013-05-23 12:20:00,
2013-05-23 08:21:00,65.5,63.1,29.94,North,0,0.0,0.0,92,0.00,,,0.00,WUHU216HW,2013-05-23 12:21:00,
2013-05-23 08:26:00,65.7,63.0,29.94,North,0,0.0,0.0,91,0.00,,,0.00,WUHU216HW,2013-05-23 12:26:00,
2013-05-23 08:31:00,65.9,63.2,29.94,North,0,0.0,0.0,91,0.00,,,0.00,WUHU216HW,2013-05-23 12:31:00,
2013-05-23 08:32:00,65.9,63.2,29.94,North,0,0.0,0.0,91,0.00,,,0.00,WUHU216HW,2013-05-23 12:32:00,
2013-05-23 08:36:00,65.5,62.8,29.95,North,0,0.0,0.0,91,0.00,,,0.00,WUHU216HW,2013-05-23 12:36:00,
2013-05-23 08:37:00,65.7,63.0,29.94,North,0,0.0,0.0,91,0.00,,,0.00,WUHU216HW,2013-05-23 12:37:00,
2013-05-23 08:41:00,65.7,63.0,29.94,North,0,0.0,0.0,91,0.00,,,0.00,WUHU216HW,2013-05-23 12:41:00,
2013-05-23 08:42:00,65.7,63.0,29.94,North,0,0.0,0.0,91,0.00,,,0.00,WUHU216HW,2013-05-23 12:42:00,
2013-05-23 08:46:00,65.9,63.2,29.94,North,0,0.0,0.0,91,0.00,,,0.00,WUHU216HW,2013-05-23 12:46:00,
2013-05-23 08:47:00,65.9,63.2,29.94,North,0,0.0,0.0,91,0.00,,,0.00,WUHU216HW,2013-05-23 12:47:00,
2013-05-23 08:52:00,66.6,64.4,29.94,North,0,0.0,0.0,93,0.00,,,0.00,WUHU216HW,2013-05-23 12:52:00,
2013-05-23 08:53:00,66.8,64.4,29.94,North,0,0.0,0.0,92,0.00,,,0.00,WUHU216HW,2013-05-23 12:53:00,
2013-05-23 08:56:00,67.5,64.7,29.94,North,0,0.0,0.0,91,0.00,,,0.00,WUHU216HW,2013-05-23 12:56:00,
2013-05-23 08:57:00,67.7,64.9,29.94,North,0,0.0,0.0,91,0.00,,,0.00,WUHU216HW,2013-05-23 12:57:00,
2013-05-23 08:58:00,67.7,64.9,29.94,North,0,0.0,0.0,91,0.00,,,0.00,WUHU216HW,2013-05-23 12:58:00,
2013-05-23 09:02:00,68.2,64.8,29.95,North,0,0.0,0.0,89,0.00,,,0.00,WUHU216HW,2013-05-23 13:02:00,
2013-05-23 09:03:00,68.4,64.7,29.94,North,0,0.0,0.0,88,0.00,,,0.00,WUHU216HW,2013-05-23 13:03:00,
2013-05-23 09:07:00,68.4,64.0,29.95,North,0,0.0,0.0,86,0.00,,,0.00,WUHU216HW,2013-05-23 13:07:00,
2013-05-23 09:08:00,68.4,64.0,29.94,North,0,0.0,0.0,86,0.00,,,0.00,WUHU216HW,2013-05-23 13:08:00,
2013-05-23 09:12:00,68.2,63.2,29.95,North,0,0.0,0.0,84,0.00,,,0.00,WUHU216HW,2013-05-23 13:12:00,
2013-05-23 09:13:00,68.2,63.2,29.95,North,0,0.0,0.0,84,0.00,,,0.00,WUHU216HW,2013-05-23 13:13:00,
2013-05-23 09:18:00,68.0,63.4,29.95,North,0,0.0,0.0,85,0.00,,,0.00,WUHU216HW,2013-05-23 13:18:00,
2013-05-23 09:23:00,68.2,63.6,29.95,North,0,0.0,0.0,85,0.00,,,0.00,WUHU216HW,2013-05-23 13:23:00,
2013-05-23 09:24:00,68.4,63.7,29.95,North,0,0.0,0.0,85,0.00,,,0.00,WUHU216HW,2013-05-23 13:24:00,
2013-05-23 09:28:00,68.8,63.7,29.95,North,0,0.0,0.0,84,0.00,,,0.00,WUHU216HW,2013-05-23 13:28:00,
2013-05-23 09:29:00,68.9,63.9,29.95,North,0,0.0,0.0,84,0.00,,,0.00,WUHU216HW,2013-05-23 13:29:00,
2013-05-23 09:30:00,69.1,63.7,29.95,North,0,0.0,0.0,83,0.00,,,0.00,WUHU216HW,2013-05-23 13:30:00,
2013-05-23 09:33:00,69.7,63.9,29.95,North,0,0.0,0.0,82,0.00,,,0.00,WUHU216HW,2013-05-23 13:33:00,
2013-05-23 09:34:00,69.7,63.9,29.95,North,0,0.0,0.0,82,0.00,,,0.00,WUHU216HW,2013-05-23 13:34:00,
2013-05-23 09:35:00,69.8,63.7,29.95,North,0,0.0,0.0,81,0.00,,,0.00,WUHU216HW,2013-05-23 13:35:00,
2013-05-23 09:38:00,70.4,64.3,29.95,North,0,0.0,0.0,81,0.00,,,0.00,WUHU216HW,2013-05-23 13:38:00,
2013-05-23 09:39:00,70.6,64.8,29.95,North,0,0.0,0.0,82,0.00,,,0.00,WUHU216HW,2013-05-23 13:39:00,
2013-05-23 09:40:00,70.6,64.8,29.95,North,0,0.0,0.0,82,0.00,,,0.00,WUHU216HW,2013-05-23 13:40:00,
2013-05-23 09:43:00,71.1,64.6,29.95,North,0,0.0,0.0,80,0.00,,,0.00,WUHU216HW,2013-05-23 13:43:00,
2013-05-23 09:44:00,71.3,64.5,29.95,North,0,0.0,0.0,79,0.00,,,0.00,WUHU216HW,2013-05-23 13:44:00,
2013-05-23 09:45:00,71.3,64.5,29.95,North,0,0.0,0.0,79,0.00,,,0.00,WUHU216HW,2013-05-23 13:45:00,
2013-05-23 09:49:00,71.5,63.8,29.95,North,0,0.0,0.0,77,0.00,,,0.00,WUHU216HW,2013-05-23 13:49:00,
2013-05-23 09:50:00,71.5,63.8,29.95,North,0,0.0,0.0,77,0.00,,,0.00,WUHU216HW,2013-05-23 13:50:00,
2013-05-23 09:51:00,71.5,64.3,29.95,North,0,0.0,0.0,78,0.00,,,0.00,WUHU216HW,2013-05-23 13:51:00,
2013-05-23 09:54:00,71.6,64.0,29.95,North,0,0.0,0.0,77,0.00,,,0.00,WUHU216HW,2013-05-23 13:54:00,
2013-05-23 09:55:00,71.5,63.8,29.95,North,0,0.0,0.0,77,0.00,,,0.00,WUHU216HW,2013-05-23 13:55:00,
2013-05-23 09:56:00,71.6,64.0,29.95,North,0,0.0,0.0,77,0.00,,,0.00,WUHU216HW,2013-05-23 13:56:00,
2013-05-23 09:59:00,71.5,63.8,29.95,North,0,0.0,0.0,77,0.00,,,0.00,WUHU216HW,2013-05-23 13:59:00,
2013-05-23 10:00:00,71.5,63.8,29.95,North,0,0.0,0.0,77,0.00,,,0.00,WUHU216HW,2013-05-23 14:00:00,
2013-05-23 10:01:00,71.6,63.6,29.95,North,0,0.0,0.0,76,0.00,,,0.00,WUHU216HW,2013-05-23 14:01:00,
2013-05-23 10:05:00,70.9,62.9,29.95,North,0,0.0,0.0,76,0.00,,,0.00,WUHU216HW,2013-05-23 14:05:00,
2013-05-23 10:06:00,70.7,62.7,29.95,North,0,0.0,0.0,76,0.00,,,0.00,WUHU216HW,2013-05-23 14:06:00,
2013-05-23 10:10:00,70.6,62.9,29.95,North,0,0.0,0.0,77,0.00,,,0.00,WUHU216HW,2013-05-23 14:10:00,
2013-05-23 10:11:00,70.6,62.9,29.95,North,0,0.0,0.0,77,0.00,,,0.00,WUHU216HW,2013-05-23 14:11:00,
2013-05-23 10:12:00,70.7,63.1,29.94,North,0,0.0,0.0,77,0.00,,,0.00,WUHU216HW,2013-05-23 14:12:00,
2013-05-23 10:15:00,70.9,63.3,29.95,North,0,0.0,0.0,77,0.00,,,0.00,WUHU216HW,2013-05-23 14:15:00,
2013-05-23 10:17:00,71.1,63.5,29.94,North,0,0.0,0.0,77,0.00,,,0.00,WUHU216HW,2013-05-23 14:17:00,
2013-05-23 10:20:00,71.1,63.5,29.94,North,0,0.0,0.0,77,0.00,,,0.00,WUHU216HW,2013-05-23 14:20:00,
2013-05-23 10:21:00,71.1,63.5,29.94,North,0,0.0,0.0,77,0.00,,,0.00,WUHU216HW,2013-05-23 14:21:00,
2013-05-23 10:22:00,71.1,63.5,29.94,North,0,0.0,0.0,77,0.00,,,0.00,WUHU216HW,2013-05-23 14:22:00,
2013-05-23 10:26:00,70.9,63.3,29.94,North,0,0.0,0.0,77,0.00,,,0.00,WUHU216HW,2013-05-23 14:26:00,
2013-05-23 10:27:00,70.9,63.3,29.94,North,0,0.0,0.0,77,0.00,,,0.00,WUHU216HW,2013-05-23 14:27:00,
2013-05-23 10:28:00,70.7,63.1,29.94,North,0,0.0,0.0,77,0.00,,,0.00,WUHU216HW,2013-05-23 14:28:00,
2013-05-23 10:31:00,70.6,62.6,29.94,North,0,0.0,0.0,76,0.00,,,0.00,WUHU216HW,2013-05-23 14:31:00,
2013-05-23 10:33:00,70.4,62.4,29.94,North,0,0.0,0.0,76,0.00,,,0.00,WUHU216HW,2013-05-23 14:33:00,
2013-05-23 10:36:00,70.2,62.2,29.94,North,0,0.0,0.0,76,0.00,,,0.00,WUHU216HW,2013-05-23 14:36:00,
2013-05-23 10:38:00,70.4,62.0,29.94,North,0,0.0,0.0,75,0.00,,,0.00,WUHU216HW,2013-05-23 14:38:00,
2013-05-23 10:41:00,70.6,62.2,29.94,North,0,0.0,0.0,75,0.00,,,0.00,WUHU216HW,2013-05-23 14:41:00,
2013-05-23 10:43:00,70.4,61.7,29.95,North,0,0.0,0.0,74,0.00,,,0.00,WUHU216HW,2013-05-23 14:43:00,
2013-05-23 10:46:00,70.4,62.0,29.94,North,0,0.0,0.0,75,0.00,,,0.00,WUHU216HW,2013-05-23 14:46:00,
2013-05-23 10:48:00,70.4,62.0,29.94,North,0,0.0,0.0,75,0.00,,,0.00,WUHU216HW,2013-05-23 14:48:00,
2013-05-23 10:51:00,70.2,61.8,29.95,North,0,0.0,0.0,75,0.00,,,0.00,WUHU216HW,2013-05-23 14:51:00,
2013-05-23 10:52:00,70.2,62.2,29.95,North,0,0.0,0.0,76,0.00,,,0.00,WUHU216HW,2013-05-23 14:52:00,
2013-05-23 10:53:00,70.2,62.2,29.95,North,0,0.0,0.0,76,0.00,,,0.00,WUHU216HW,2013-05-23 14:53:00,
2013-05-23 10:57:00,70.7,63.1,29.94,North,0,0.0,0.0,77,0.00,,,0.00,WUHU216HW,2013-05-23 14:57:00,
2013-05-23 10:58:00,70.7,63.1,29.94,North,0,0.0,0.0,77,0.00,,,0.00,WUHU216HW,2013-05-23 14:58:00,
2013-05-23 11:02:00,71.1,63.1,29.95,North,0,0.0,0.0,76,0.00,,,0.00,WUHU216HW,2013-05-23 15:02:00,
2013-05-23 11:03:00,71.3,63.3,29.95,North,0,0.0,0.0,76,0.00,,,0.00,WUHU216HW,2013-05-23 15:03:00,
2013-05-23 11:04:00,71.3,62.9,29.95,North,0,0.0,0.0,75,0.00,,,0.00,WUHU216HW,2013-05-23 15:04:00,
2013-05-23 11:07:00,71.1,62.7,29.95,North,0,0.0,0.0,75,0.00,,,0.00,WUHU216HW,2013-05-23 15:07:00,
2013-05-23 11:08:00,71.1,62.4,29.95,North,0,0.0,0.0,74,0.00,,,0.00,WUHU216HW,2013-05-23 15:08:00,
2013-05-23 11:09:00,71.1,62.4,29.95,North,0,0.0,0.0,74,0.00,,,0.00,WUHU216HW,2013-05-23 15:09:00,
2013-05-23 11:12:00,71.1,62.4,29.95,North,0,0.0,0.0,74,0.00,,,0.00,WUHU216HW,2013-05-23 15:12:00,
2013-05-23 11:13:00,70.9,62.2,29.95,North,0,0.0,0.0,74,0.00,,,0.00,WUHU216HW,2013-05-23 15:13:00,
2013-05-23 11:14:00,70.9,62.2,29.95,North,0,0.0,0.0,74,0.00,,,0.00,WUHU216HW,2013-05-23 15:14:00,
2013-05-23 11:17:00,70.7,62.0,29.95,North,0,0.0,0.0,74,0.00,,,0.00,WUHU216HW,2013-05-23 15:17:00,
2013-05-23 11:18:00,70.6,61.8,29.95,North,0,0.0,0.0,74,0.00,,,0.00,WUHU216HW,2013-05-23 15:18:00,
2013-05-23 11:19:00,70.6,61.8,29.95,North,0,0.0,0.0,74,0.00,,,0.00,WUHU216HW,2013-05-23 15:19:00,
2013-05-23 11:22:00,70.6,62.2,29.95,North,0,0.0,0.0,75,0.00,,,0.00,WUHU216HW,2013-05-23 15:22:00,
2013-05-23 11:23:00,70.6,62.2,29.95,North,0,0.0,0.0,75,0.00,,,0.00,WUHU216HW,2013-05-23 15:23:00,
2013-05-23 11:24:00,70.7,62.0,29.95,North,0,0.0,0.0,74,0.00,,,0.00,WUHU216HW,2013-05-23 15:24:00,
2013-05-23 11:28:00,71.3,62.6,29.95,North,0,0.0,0.0,74,0.00,,,0.00,WUHU216HW,2013-05-23 15:28:00,
2013-05-23 11:29:00,71.3,62.6,29.95,North,0,0.0,0.0,74,0.00,,,0.00,WUHU216HW,2013-05-23 15:29:00,
2013-05-23 11:33:00,71.8,63.1,29.94,North,0,0.0,0.0,74,0.00,,,0.00,WUHU216HW,2013-05-23 15:33:00,
2013-05-23 11:34:00,72.0,63.3,29.94,North,0,0.0,0.0,74,0.00,,,0.00,WUHU216HW,2013-05-23 15:34:00,
2013-05-23 11:38:00,72.4,63.6,29.94,North,0,0.0,0.0,74,0.00,,,0.00,WUHU216HW,2013-05-23 15:38:00,
2013-05-23 11:39:00,72.4,63.6,29.94,North,0,0.0,0.0,74,0.00,,,0.00,WUHU216HW,2013-05-23 15:39:00,
2013-05-23 11:43:00,72.5,63.8,29.94,North,0,0.0,0.0,74,0.00,,,0.00,WUHU216HW,2013-05-23 15:43:00,
2013-05-23 11:44:00,72.5,63.8,29.94,North,0,0.0,0.0,74,0.00,,,0.00,WUHU216HW,2013-05-23 15:44:00,
2013-05-23 11:48:00,73.1,63.2,29.94,North,0,0.0,0.0,71,0.00,,,0.00,WUHU216HW,2013-05-23 15:48:00,
2013-05-23 11:49:00,73.1,63.2,29.94,North,0,0.0,0.0,71,0.00,,,0.00,WUHU216HW,2013-05-23 15:49:00,
2013-05-23 11:50:00,73.1,63.2,29.94,North,0,0.0,0.0,71,0.00,,,0.00,WUHU216HW,2013-05-23 15:50:00,
2013-05-23 11:53:00,73.1,62.8,29.94,North,0,0.0,0.0,70,0.00,,,0.00,WUHU216HW,2013-05-23 15:53:00,
2013-05-23 11:54:00,73.1,62.8,29.94,North,0,0.0,0.0,70,0.00,,,0.00,WUHU216HW,2013-05-23 15:54:00,
2013-05-23 11:55:00,72.9,63.0,29.94,North,0,0.0,0.0,71,0.01,,,0.01,WUHU216HW,2013-05-23 15:55:00,
2013-05-23 11:58:00,72.7,62.8,29.94,North,0,0.0,0.0,71,0.01,,,0.01,WUHU216HW,2013-05-23 15:58:00,
2013-05-23 11:59:00,72.7,62.8,29.94,North,0,0.0,0.0,71,0.01,,,0.01,WUHU216HW,2013-05-23 15:59:00,
2013-05-23 12:00:00,72.7,62.8,29.94,North,0,0.0,0.0,71,0.01,,,0.01,WUHU216HW,2013-05-23 16:00:00,
2013-05-23 12:03:00,72.5,62.6,29.94,North,0,0.0,0.0,71,0.01,,,0.01,WUHU216HW,2013-05-23 16:03:00,
2013-05-23 12:04:00,72.5,62.6,29.94,North,0,0.0,0.0,71,0.01,,,0.01,WUHU216HW,2013-05-23 16:04:00,
2013-05-23 12:05:00,72.5,63.0,29.94,North,0,0.0,0.0,72,0.01,,,0.01,WUHU216HW,2013-05-23 16:05:00,
2013-05-23 12:08:00,72.7,62.8,29.93,North,0,0.0,0.0,71,0.01,,,0.01,WUHU216HW,2013-05-23 16:08:00,
2013-05-23 12:09:00,72.7,62.8,29.93,North,0,0.0,0.0,71,0.01,,,0.01,WUHU216HW,2013-05-23 16:09:00,
2013-05-23 12:10:00,72.7,62.8,29.93,North,0,0.0,0.0,71,0.01,,,0.01,WUHU216HW,2013-05-23 16:10:00,
2013-05-23 12:13:00,73.6,63.7,29.93,North,0,0.0,0.0,71,0.01,,,0.01,WUHU216HW,2013-05-23 16:13:00,
2013-05-23 12:14:00,73.6,63.7,29.93,North,0,0.0,0.0,71,0.01,,,0.01,WUHU216HW,2013-05-23 16:14:00,
2013-05-23 12:15:00,73.6,63.7,29.93,North,0,0.0,0.0,71,0.01,,,0.01,WUHU216HW,2013-05-23 16:15:00,
2013-05-23 12:19:00,73.8,63.6,29.93,North,0,0.0,0.0,70,0.01,,,0.01,WUHU216HW,2013-05-23 16:19:00,
2013-05-23 12:20:00,73.6,63.4,29.92,North,0,0.0,0.0,70,0.01,,,0.01,WUHU216HW,2013-05-23 16:20:00,
2013-05-23 12:21:00,73.6,63.4,29.93,North,0,0.0,0.0,70,0.01,,,0.01,WUHU216HW,2013-05-23 16:21:00,
2013-05-23 12:25:00,72.7,62.5,29.92,North,0,0.0,0.0,70,0.01,,,0.01,WUHU216HW,2013-05-23 16:25:00,
2013-05-23 12:26:00,72.5,62.3,29.92,North,0,0.0,0.0,70,0.01,,,0.01,WUHU216HW,2013-05-23 16:26:00,
2013-05-23 12:30:00,72.4,62.5,29.92,North,0,0.0,0.0,71,0.01,,,0.01,WUHU216HW,2013-05-23 16:30:00,
2013-05-23 12:31:00,72.4,62.5,29.92,North,0,0.0,0.0,71,0.01,,,0.01,WUHU216HW,2013-05-23 16:31:00,
2013-05-23 12:35:00,72.2,62.6,29.92,North,0,0.0,0.0,72,0.01,,,0.01,WUHU216HW,2013-05-23 16:35:00,
2013-05-23 12:36:00,72.2,62.6,29.92,North,0,0.0,0.0,72,0.01,,,0.01,WUHU216HW,2013-05-23 16:36:00,
2013-05-23 12:40:00,72.9,63.0,29.92,North,0,0.0,0.0,71,0.01,,,0.01,WUHU216HW,2013-05-23 16:40:00,
2013-05-23 12:41:00,72.9,63.0,29.92,North,0,0.0,0.0,71,0.01,,,0.01,WUHU216HW,2013-05-23 16:41:00,
2013-05-23 12:42:00,72.7,62.8,29.92,North,0,0.0,0.0,71,0.01,,,0.01,WUHU216HW,2013-05-23 16:42:00,
2013-05-23 12:45:00,72.5,62.6,29.92,North,0,0.0,0.0,71,0.01,,,0.01,WUHU216HW,2013-05-23 16:45:00,
2013-05-23 12:46:00,72.7,62.8,29.92,North,0,0.0,0.0,71,0.01,,,0.01,WUHU216HW,2013-05-23 16:46:00,
2013-05-23 12:47:00,72.7,62.8,29.92,North,0,0.0,0.0,71,0.01,,,0.01,WUHU216HW,2013-05-23 16:47:00,
2013-05-23 12:50:00,73.3,63.0,29.92,North,0,0.0,0.0,70,0.01,,,0.01,WUHU216HW,2013-05-23 16:50:00,
2013-05-23 12:51:00,73.3,63.0,29.92,North,0,0.0,0.0,70,0.01,,,0.01,WUHU216HW,2013-05-23 16:51:00,
2013-05-23 12:52:00,73.4,63.2,29.92,North,0,0.0,0.0,70,0.00,,,0.01,WUHU216HW,2013-05-23 16:52:00,
2013-05-23 12:55:00,73.8,63.1,29.92,North,0,0.0,0.0,69,0.00,,,0.01,WUHU216HW,2013-05-23 16:55:00,
2013-05-23 12:56:00,73.8,62.7,29.92,North,0,0.0,0.0,68,0.00,,,0.01,WUHU216HW,2013-05-23 16:56:00,
2013-05-23 12:57:00,73.8,63.1,29.92,North,0,0.0,0.0,69,0.00,,,0.01,WUHU216HW,2013-05-23 16:57:00,
2013-05-23 13:01:00,73.6,62.5,29.92,North,0,0.0,0.0,68,0.00,,,0.01,WUHU216HW,2013-05-23 17:01:00,
2013-05-23 13:02:00,73.4,62.3,29.91,North,0,0.0,0.0,68,0.00,,,0.01,WUHU216HW,2013-05-23 17:02:00,
2013-05-23 13:06:00,73.3,62.6,29.91,North,0,0.0,0.0,69,0.00,,,0.01,WUHU216HW,2013-05-23 17:06:00,
2013-05-23 13:07:00,73.3,62.6,29.91,North,0,0.0,0.0,69,0.00,,,0.01,WUHU216HW,2013-05-23 17:07:00,
2013-05-23 13:11:00,73.8,62.7,29.91,North,0,0.0,0.0,68,0.00,,,0.01,WUHU216HW,2013-05-23 17:11:00,
2013-05-23 13:12:00,74.0,62.4,29.91,North,0,0.0,0.0,67,0.00,,,0.01,WUHU216HW,2013-05-23 17:12:00,
2013-05-23 13:13:00,74.0,62.8,29.91,North,0,0.0,0.0,68,0.00,,,0.01,WUHU216HW,2013-05-23 17:13:00,
2013-05-23 13:16:00,74.2,62.5,29.91,North,0,0.0,0.0,67,0.00,,,0.01,WUHU216HW,2013-05-23 17:16:00,
2013-05-23 13:17:00,74.3,63.1,29.91,North,0,0.0,0.0,68,0.00,,,0.01,WUHU216HW,2013-05-23 17:17:00,
2013-05-23 13:18:00,74.3,63.1,29.91,North,0,0.0,0.0,68,0.00,,,0.01,WUHU216HW,2013-05-23 17:18:00,
2013-05-23 13:22:00,74.2,62.5,29.91,North,0,0.0,0.0,67,0.00,,,0.01,WUHU216HW,2013-05-23 17:22:00,
2013-05-23 13:23:00,74.2,62.5,29.91,North,0,0.0,0.0,67,0.00,,,0.01,WUHU216HW,2013-05-23 17:23:00,
2013-05-23 13:27:00,74.2,62.5,29.91,North,0,0.0,0.0,67,0.00,,,0.01,WUHU216HW,2013-05-23 17:27:00,
2013-05-23 13:28:00,74.2,62.5,29.91,North,0,0.0,0.0,67,0.00,,,0.01,WUHU216HW,2013-05-23 17:28:00,
2013-05-23 13:32:00,73.8,62.2,29.91,North,0,0.0,0.0,67,0.00,,,0.01,WUHU216HW,2013-05-23 17:32:00,
2013-05-23 13:33:00,73.8,62.2,29.91,North,0,0.0,0.0,67,0.00,,,0.01,WUHU216HW,2013-05-23 17:33:00,
2013-05-23 13:34:00,73.8,62.2,29.91,North,0,0.0,0.0,67,0.00,,,0.01,WUHU216HW,2013-05-23 17:34:00,
2013-05-23 13:37:00,73.4,62.3,29.91,North,0,0.0,0.0,68,0.00,,,0.01,WUHU216HW,2013-05-23 17:37:00,
2013-05-23 13:38:00,73.4,62.3,29.91,North,0,0.0,0.0,68,0.00,,,0.01,WUHU216HW,2013-05-23 17:38:00,
2013-05-23 13:39:00,73.4,61.8,29.90,North,0,0.0,0.0,67,0.00,,,0.01,WUHU216HW,2013-05-23 17:39:00,
2013-05-23 13:42:00,73.3,61.7,29.91,North,0,0.0,0.0,67,0.00,,,0.01,WUHU216HW,2013-05-23 17:42:00,
2013-05-23 13:43:00,73.1,61.5,29.91,North,0,0.0,0.0,67,0.00,,,0.01,WUHU216HW,2013-05-23 17:43:00,
2013-05-23 13:44:00,73.1,61.5,29.91,North,0,0.0,0.0,67,0.00,,,0.01,WUHU216HW,2013-05-23 17:44:00,
2013-05-23 13:45:00,73.1,61.9,29.91,North,0,0.0,0.0,68,0.00,,,0.01,WUHU216HW,2013-05-23 17:45:00,
2013-05-23 13:47:00,72.9,61.7,29.90,North,0,0.0,0.0,68,0.00,,,0.01,WUHU216HW,2013-05-23 17:47:00,
2013-05-23 13:48:00,72.9,61.7,29.90,North,0,0.0,0.0,68,0.00,,,0.01,WUHU216HW,2013-05-23 17:48:00,
2013-05-23 13:49:00,72.7,61.6,29.91,North,0,0.0,0.0,68,0.00,,,0.01,WUHU216HW,2013-05-23 17:49:00,
2013-05-23 13:50:00,72.9,61.7,29.90,North,0,0.0,0.0,68,0.00,,,0.01,WUHU216HW,2013-05-23 17:50:00,
2013-05-23 13:52:00,72.9,62.2,29.90,North,0,0.0,0.0,69,0.00,,,0.01,WUHU216HW,2013-05-23 17:52:00,
2013-05-23 13:53:00,72.9,62.2,29.90,North,0,0.0,0.0,69,0.00,,,0.01,WUHU216HW,2013-05-23 17:53:00,
2013-05-23 13:54:00,72.9,62.2,29.90,North,0,0.0,0.0,69,0.00,,,0.01,WUHU216HW,2013-05-23 17:54:00,
2013-05-23 13:55:00,72.9,62.2,29.90,North,0,0.0,0.0,69,0.00,,,0.01,WUHU216HW,2013-05-23 17:55:00,
2013-05-23 13:58:00,72.7,62.5,29.90,North,0,0.0,0.0,70,0.00,,,0.01,WUHU216HW,2013-05-23 17:58:00,
2013-05-23 13:59:00,72.9,63.0,29.90,North,0,0.0,0.0,71,0.00,,,0.01,WUHU216HW,2013-05-23 17:59:00,
2013-05-23 14:00:00,72.9,63.0,29.90,North,0,0.0,0.0,71,0.00,,,0.01,WUHU216HW,2013-05-23 18:00:00,
2013-05-23 14:03:00,73.1,63.2,29.90,North,0,0.0,0.0,71,0.00,,,0.01,WUHU216HW,2013-05-23 18:03:00,
2013-05-23 14:04:00,73.1,63.2,29.90,North,0,0.0,0.0,71,0.00,,,0.01,WUHU216HW,2013-05-23 18:04:00,
2013-05-23 14:05:00,73.1,63.2,29.90,North,0,0.0,0.0,71,0.00,,,0.01,WUHU216HW,2013-05-23 18:05:00,
2013-05-23 14:08:00,73.3,63.4,29.90,North,0,0.0,0.0,71,0.00,,,0.01,WUHU216HW,2013-05-23 18:08:00,
2013-05-23 14:09:00,73.3,63.4,29.90,North,0,0.0,0.0,71,0.00,,,0.01,WUHU216HW,2013-05-23 18:09:00,
2013-05-23 14:10:00,73.4,63.2,29.90,North,0,0.0,0.0,70,0.00,,,0.01,WUHU216HW,2013-05-23 18:10:00,
2013-05-23 14:14:00,73.1,62.8,29.90,North,0,0.0,0.0,70,0.00,,,0.01,WUHU216HW,2013-05-23 18:14:00,
2013-05-23 14:15:00,72.9,62.6,29.90,North,0,0.0,0.0,70,0.00,,,0.01,WUHU216HW,2013-05-23 18:15:00,
2013-05-23 14:16:00,72.9,63.0,29.90,North,0,0.0,0.0,71,0.00,,,0.01,WUHU216HW,2013-05-23 18:16:00,
2013-05-23 14:19:00,72.5,62.6,29.90,North,0,0.0,0.0,71,0.00,,,0.01,WUHU216HW,2013-05-23 18:19:00,
2013-05-23 14:20:00,72.5,62.6,29.90,North,0,0.0,0.0,71,0.00,,,0.01,WUHU216HW,2013-05-23 18:20:00,
2013-05-23 14:21:00,72.5,62.6,29.90,North,0,0.0,0.0,71,0.00,,,0.01,WUHU216HW,2013-05-23 18:21:00,
2013-05-23 14:24:00,72.2,62.6,29.90,North,0,0.0,0.0,72,0.00,,,0.01,WUHU216HW,2013-05-23 18:24:00,
2013-05-23 14:25:00,72.2,62.6,29.89,North,0,0.0,0.0,72,0.00,,,0.01,WUHU216HW,2013-05-23 18:25:00,
2013-05-23 14:26:00,72.0,62.5,29.89,North,0,0.0,0.0,72,0.00,,,0.01,WUHU216HW,2013-05-23 18:26:00,
2013-05-23 14:29:00,72.0,62.1,29.89,North,0,0.0,0.0,71,0.00,,,0.01,WUHU216HW,2013-05-23 18:29:00,
2013-05-23 14:30:00,72.0,62.1,29.89,North,0,0.0,0.0,71,0.00,,,0.01,WUHU216HW,2013-05-23 18:30:00,
2013-05-23 14:31:00,72.0,61.7,29.89,North,0,0.0,0.0,70,0.00,,,0.01,WUHU216HW,2013-05-23 18:31:00,
2013-05-23 14:35:00,71.6,61.4,29.89,North,0,0.0,0.0,70,0.00,,,0.01,WUHU216HW,2013-05-23 18:35:00,
2013-05-23 14:36:00,71.6,61.7,29.89,North,0,0.0,0.0,71,0.00,,,0.01,WUHU216HW,2013-05-23 18:36:00,
2013-05-23 14:40:00,71.5,61.6,29.89,North,0,0.0,0.0,71,0.00,,,0.01,WUHU216HW,2013-05-23 18:40:00,
2013-05-23 14:41:00,71.3,61.0,29.89,North,0,0.0,0.0,70,0.00,,,0.01,WUHU216HW,2013-05-23 18:41:00,
2013-05-23 14:45:00,71.1,61.2,29.89,North,0,0.0,0.0,71,0.00,,,0.01,WUHU216HW,2013-05-23 18:45:00,
2013-05-23 14:46:00,70.9,61.0,29.89,North,0,0.0,0.0,71,0.00,,,0.01,WUHU216HW,2013-05-23 18:46:00,
2013-05-23 14:50:00,70.9,61.0,29.89,North,0,0.0,0.0,71,0.00,,,0.01,WUHU216HW,2013-05-23 18:50:00,
2013-05-23 14:51:00,70.9,61.0,29.89,North,0,0.0,0.0,71,0.00,,,0.01,WUHU216HW,2013-05-23 18:51:00,
2013-05-23 14:55:00,70.6,61.0,29.89,North,0,0.0,0.0,72,0.00,,,0.01,WUHU216HW,2013-05-23 18:55:00,
2013-05-23 14:56:00,70.4,60.8,29.89,North,0,0.0,0.0,72,0.00,,,0.01,WUHU216HW,2013-05-23 18:56:00,
2013-05-23 14:57:00,70.4,60.8,29.89,North,0,0.0,0.0,72,0.00,,,0.01,WUHU216HW,2013-05-23 18:57:00,
2013-05-23 15:00:00,70.2,60.7,29.89,North,0,0.0,0.0,72,0.00,,,0.01,WUHU216HW,2013-05-23 19:00:00,
2013-05-23 15:01:00,70.0,60.9,29.89,North,0,0.0,0.0,73,0.00,,,0.01,WUHU216HW,2013-05-23 19:01:00,
2013-05-23 15:02:00,70.0,60.9,29.89,North,0,0.0,0.0,73,0.00,,,0.01,WUHU216HW,2013-05-23 19:02:00,
2013-05-23 15:05:00,69.8,60.8,29.88,North,0,0.0,0.0,73,0.00,,,0.01,WUHU216HW,2013-05-23 19:05:00,
2013-05-23 15:06:00,69.8,60.8,29.88,North,0,0.0,0.0,73,0.00,,,0.01,WUHU216HW,2013-05-23 19:06:00,
2013-05-23 15:07:00,69.7,60.6,29.88,North,0,0.0,0.0,73,0.00,,,0.01,WUHU216HW,2013-05-23 19:07:00,
2013-05-23 15:10:00,69.5,60.8,29.88,North,0,0.0,0.0,74,0.00,,,0.01,WUHU216HW,2013-05-23 19:10:00,
2013-05-23 15:11:00,69.5,60.8,29.88,North,0,0.0,0.0,74,0.00,,,0.01,WUHU216HW,2013-05-23 19:11:00,
2013-05-23 15:12:00,69.5,60.8,29.88,North,0,0.0,0.0,74,0.00,,,0.01,WUHU216HW,2013-05-23 19:12:00,
2013-05-23 15:15:00,69.5,60.8,29.88,North,0,0.0,0.0,74,0.00,,,0.01,WUHU216HW,2013-05-23 19:15:00,
2013-05-23 15:16:00,69.3,60.6,29.88,North,0,0.0,0.0,74,0.00,,,0.01,WUHU216HW,2013-05-23 19:16:00,
2013-05-23 15:17:00,69.3,60.6,29.88,North,0,0.0,0.0,74,0.00,,,0.01,WUHU216HW,2013-05-23 19:17:00,
2013-05-23 15:21:00,69.1,60.9,29.88,North,0,0.0,0.0,75,0.00,,,0.01,WUHU216HW,2013-05-23 19:21:00,
2013-05-23 15:22:00,68.9,60.7,29.88,North,0,0.0,0.0,75,0.00,,,0.01,WUHU216HW,2013-05-23 19:22:00,
2013-05-23 15:23:00,68.9,60.7,29.88,North,0,0.0,0.0,75,0.00,,,0.01,WUHU216HW,2013-05-23 19:23:00,
2013-05-23 15:26:00,68.8,60.8,29.88,North,0,0.0,0.0,76,0.00,,,0.01,WUHU216HW,2013-05-23 19:26:00,
2013-05-23 15:27:00,68.8,60.8,29.88,North,0,0.0,0.0,76,0.00,,,0.01,WUHU216HW,2013-05-23 19:27:00,
2013-05-23 15:29:00,68.8,60.8,29.88,North,0,0.0,0.0,76,0.00,,,0.01,WUHU216HW,2013-05-23 19:29:00,
2013-05-23 15:31:00,68.6,60.8,29.88,North,0,0.0,0.0,76,0.00,,,0.01,WUHU216HW,2013-05-23 19:31:00,
2013-05-23 15:32:00,68.6,60.8,29.88,North,0,0.0,0.0,76,0.00,,,0.01,WUHU216HW,2013-05-23 19:32:00,
2013-05-23 15:34:00,68.6,60.8,29.88,North,0,0.0,0.0,76,0.00,,,0.01,WUHU216HW,2013-05-23 19:34:00,
2013-05-23 15:36:00,68.6,60.8,29.88,North,0,0.0,0.0,76,0.00,,,0.01,WUHU216HW,2013-05-23 19:36:00,
2013-05-23 15:37:00,68.6,60.8,29.88,North,0,0.0,0.0,76,0.00,,,0.01,WUHU216HW,2013-05-23 19:37:00,
2013-05-23 15:38:00,68.6,60.8,29.88,North,0,0.0,0.0,76,0.00,,,0.01,WUHU216HW,2013-05-23 19:38:00,
2013-05-23 15:39:00,68.6,60.8,29.88,North,0,0.0,0.0,76,0.00,,,0.01,WUHU216HW,2013-05-23 19:39:00,
2013-05-23 15:41:00,68.6,60.8,29.88,North,0,0.0,0.0,76,0.00,,,0.01,WUHU216HW,2013-05-23 19:41:00,
2013-05-23 15:42:00,68.6,60.8,29.88,North,0,0.0,0.0,76,0.00,,,0.01,WUHU216HW,2013-05-23 19:42:00,
2013-05-23 15:43:00,68.6,60.8,29.88,North,0,0.0,0.0,76,0.00,,,0.01,WUHU216HW,2013-05-23 19:43:00,
2013-05-23 15:44:00,68.6,60.3,29.88,North,0,0.0,0.0,75,0.00,,,0.01,WUHU216HW,2013-05-23 19:44:00,
2013-05-23 15:47:00,68.6,59.9,29.87,North,0,0.0,0.0,74,0.00,,,0.01,WUHU216HW,2013-05-23 19:47:00,
2013-05-23 15:48:00,68.6,59.9,29.87,North,0,0.0,0.0,74,0.00,,,0.01,WUHU216HW,2013-05-23 19:48:00,
2013-05-23 15:49:00,68.8,60.1,29.87,North,0,0.0,0.0,74,0.00,,,0.01,WUHU216HW,2013-05-23 19:49:00,
2013-05-23 15:52:00,68.8,60.1,29.87,North,0,0.0,0.0,74,0.00,,,0.01,WUHU216HW,2013-05-23 19:52:00,
2013-05-23 15:53:00,68.8,60.5,29.88,North,0,0.0,0.0,75,0.00,,,0.01,WUHU216HW,2013-05-23 19:53:00,
2013-05-23 15:54:00,68.9,60.7,29.87,North,0,0.0,0.0,75,0.00,,,0.01,WUHU216HW,2013-05-23 19:54:00,
2013-05-23 15:57:00,68.8,60.5,29.88,North,0,0.0,0.0,75,0.00,,,0.01,WUHU216HW,2013-05-23 19:57:00,
2013-05-23 15:58:00,68.8,60.5,29.88,North,0,0.0,0.0,75,0.00,,,0.01,WUHU216HW,2013-05-23 19:58:00,
2013-05-23 15:59:00,68.8,60.5,29.88,North,0,0.0,0.0,75,0.00,,,0.01,WUHU216HW,2013-05-23 19:59:00,
2013-05-23 16:03:00,68.8,60.8,29.88,North,0,0.0,0.0,76,0.00,,,0.01,WUHU216HW,2013-05-23 20:03:00,
2013-05-23 16:04:00,68.8,61.3,29.88,North,0,0.0,0.0,77,0.00,,,0.01,WUHU216HW,2013-05-23 20:04:00,
2013-05-23 16:05:00,68.8,61.3,29.88,North,0,0.0,0.0,77,0.00,,,0.01,WUHU216HW,2013-05-23 20:05:00,
2013-05-23 16:08:00,68.8,61.3,29.88,North,0,0.0,0.0,77,0.00,,,0.01,WUHU216HW,2013-05-23 20:08:00,
2013-05-23 16:09:00,69.1,61.6,29.88,North,0,0.0,0.0,77,0.00,,,0.01,WUHU216HW,2013-05-23 20:09:00,
2013-05-23 16:11:00,69.3,61.7,29.88,North,0,0.0,0.0,77,0.00,,,0.01,WUHU216HW,2013-05-23 20:11:00,
2013-05-23 16:13:00,69.5,61.9,29.87,North,0,0.0,0.0,77,0.00,,,0.01,WUHU216HW,2013-05-23 20:13:00,
2013-05-23 16:14:00,69.5,61.9,29.87,North,0,0.0,0.0,77,0.00,,,0.01,WUHU216HW,2013-05-23 20:14:00,
2013-05-23 16:16:00,69.8,62.2,29.87,North,0,0.0,0.0,77,0.00,,,0.01,WUHU216HW,2013-05-23 20:16:00,
2013-05-23 16:18:00,70.0,62.4,29.87,North,0,0.0,0.0,77,0.00,,,0.01,WUHU216HW,2013-05-23 20:18:00,
2013-05-23 16:20:00,70.2,62.6,29.87,North,0,0.0,0.0,77,0.00,,,0.01,WUHU216HW,2013-05-23 20:20:00,
2013-05-23 16:21:00,70.2,62.6,29.87,North,0,0.0,0.0,77,0.00,,,0.01,WUHU216HW,2013-05-23 20:21:00,
2013-05-23 16:23:00,70.2,62.6,29.87,North,0,0.0,0.0,77,0.00,,,0.01,WUHU216HW,2013-05-23 20:23:00,
2013-05-23 16:24:00,70.2,62.6,29.87,North,0,0.0,0.0,77,0.00,,,0.01,WUHU216HW,2013-05-23 20:24:00,
2013-05-23 16:25:00,70.2,62.6,29.87,North,0,0.0,0.0,77,0.00,,,0.01,WUHU216HW,2013-05-23 20:25:00,
2013-05-23 16:27:00,70.2,62.6,29.87,North,0,0.0,0.0,77,0.00,,,0.01,WUHU216HW,2013-05-23 20:27:00,
2013-05-23 16:28:00,70.2,62.6,29.87,North,0,0.0,0.0,77,0.00,,,0.01,WUHU216HW,2013-05-23 20:28:00,
2013-05-23 16:29:00,70.2,62.6,29.87,North,0,0.0,0.0,77,0.00,,,0.01,WUHU216HW,2013-05-23 20:29:00,
2013-05-23 16:30:00,70.2,62.6,29.87,North,0,0.0,0.0,77,0.00,,,0.01,WUHU216HW,2013-05-23 20:30:00,
2013-05-23 16:32:00,70.2,62.6,29.87,North,0,0.0,0.0,77,0.00,,,0.01,WUHU216HW,2013-05-23 20:32:00,
2013-05-23 16:34:00,70.2,62.6,29.87,North,0,0.0,0.0,77,0.00,,,0.01,WUHU216HW,2013-05-23 20:34:00,
2013-05-23 16:35:00,70.0,62.4,29.87,North,0,0.0,0.0,77,0.00,,,0.01,WUHU216HW,2013-05-23 20:35:00,
2013-05-23 16:37:00,69.8,62.2,29.87,North,0,0.0,0.0,77,0.00,,,0.01,WUHU216HW,2013-05-23 20:37:00,
2013-05-23 16:39:00,69.8,62.2,29.87,North,0,0.0,0.0,77,0.00,,,0.01,WUHU216HW,2013-05-23 20:39:00,
2013-05-23 16:40:00,69.8,62.2,29.87,North,0,0.0,0.0,77,0.00,,,0.01,WUHU216HW,2013-05-23 20:40:00,
2013-05-23 16:42:00,69.7,62.8,29.87,North,0,0.0,0.0,79,0.00,,,0.01,WUHU216HW,2013-05-23 20:42:00,
2013-05-23 16:44:00,69.5,62.6,29.87,North,0,0.0,0.0,79,0.00,,,0.01,WUHU216HW,2013-05-23 20:44:00,
2013-05-23 16:45:00,69.7,62.8,29.86,North,0,0.0,0.0,79,0.00,,,0.01,WUHU216HW,2013-05-23 20:45:00,
2013-05-23 16:47:00,69.7,63.2,29.86,North,0,0.0,0.0,80,0.00,,,0.01,WUHU216HW,2013-05-23 20:47:00,
2013-05-23 16:49:00,69.5,62.6,29.87,North,0,0.0,0.0,79,0.00,,,0.01,WUHU216HW,2013-05-23 20:49:00,
2013-05-23 16:50:00,69.7,63.2,29.87,North,0,0.0,0.0,80,0.00,,,0.01,WUHU216HW,2013-05-23 20:50:00,
2013-05-23 16:53:00,69.5,63.0,29.86,North,0,0.0,0.0,80,0.00,,,0.01,WUHU216HW,2013-05-23 20:53:00,
2013-05-23 16:54:00,69.3,62.9,29.87,North,0,0.0,0.0,80,0.00,,,0.01,WUHU216HW,2013-05-23 20:54:00,
2013-05-23 16:55:00,69.1,62.7,29.86,North,0,0.0,0.0,80,0.00,,,0.01,WUHU216HW,2013-05-23 20:55:00,
2013-05-23 16:56:00,69.1,62.7,29.86,North,0,0.0,0.0,80,0.00,,,0.01,WUHU216HW,2013-05-23 20:56:00,
2013-05-23 16:58:00,68.8,62.4,29.86,North,0,0.0,0.0,80,0.00,,,0.01,WUHU216HW,2013-05-23 20:58:00,
2013-05-23 16:59:00,68.8,62.4,29.86,North,0,0.0,0.0,80,0.00,,,0.01,WUHU216HW,2013-05-23 20:59:00,
2013-05-23 17:00:00,68.8,62.4,29.87,North,0,0.0,0.0,80,0.00,,,0.01,WUHU216HW,2013-05-23 21:00:00,
2013-05-23 17:01:00,68.4,62.1,29.86,North,0,0.0,0.0,80,0.00,,,0.01,WUHU216HW,2013-05-23 21:01:00,
2013-05-23 17:03:00,68.0,61.7,29.86,North,0,0.0,0.0,80,0.00,,,0.01,WUHU216HW,2013-05-23 21:03:00,
2013-05-23 17:04:00,68.0,61.7,29.86,North,0,0.0,0.0,80,0.00,,,0.01,WUHU216HW,2013-05-23 21:04:00,
2013-05-23 17:05:00,67.9,61.6,29.86,North,0,0.0,0.0,80,0.00,,,0.01,WUHU216HW,2013-05-23 21:05:00,
2013-05-23 17:06:00,67.9,61.6,29.86,North,0,0.0,0.0,80,0.00,,,0.01,WUHU216HW,2013-05-23 21:06:00,
2013-05-23 17:08:00,67.7,61.8,29.86,North,0,0.0,0.0,81,0.00,,,0.01,WUHU216HW,2013-05-23 21:08:00,
2013-05-23 17:09:00,67.7,61.8,29.86,North,0,0.0,0.0,81,0.00,,,0.01,WUHU216HW,2013-05-23 21:09:00,
2013-05-23 17:10:00,67.7,62.0,29.86,North,0,0.0,0.0,82,0.00,,,0.01,WUHU216HW,2013-05-23 21:10:00,
2013-05-23 17:11:00,67.7,62.0,29.86,North,0,0.0,0.0,82,0.00,,,0.01,WUHU216HW,2013-05-23 21:11:00,
2013-05-23 17:14:00,67.5,61.8,29.86,North,0,0.0,0.0,82,0.00,,,0.01,WUHU216HW,2013-05-23 21:14:00,
2013-05-23 17:16:00,67.5,61.8,29.86,North,0,0.0,0.0,82,0.00,,,0.01,WUHU216HW,2013-05-23 21:16:00,
2013-05-23 17:19:00,67.5,61.8,29.86,North,0,0.0,0.0,82,0.00,,,0.01,WUHU216HW,2013-05-23 21:19:00,
2013-05-23 17:20:00,67.5,61.8,29.86,North,0,0.0,0.0,82,0.00,,,0.01,WUHU216HW,2013-05-23 21:20:00,
2013-05-23 17:21:00,67.5,61.8,29.86,North,0,0.0,0.0,82,0.00,,,0.01,WUHU216HW,2013-05-23 21:21:00,
2013-05-23 17:22:00,67.5,61.8,29.86,North,0,0.0,0.0,82,0.00,,,0.01,WUHU216HW,2013-05-23 21:22:00,
2013-05-23 17:24:00,67.3,61.7,29.86,North,0,0.0,0.0,82,0.00,,,0.01,WUHU216HW,2013-05-23 21:24:00,
2013-05-23 17:25:00,67.3,61.4,29.86,North,0,0.0,0.0,81,0.00,,,0.01,WUHU216HW,2013-05-23 21:25:00,
2013-05-23 17:26:00,67.3,61.4,29.86,North,0,0.0,0.0,81,0.00,,,0.01,WUHU216HW,2013-05-23 21:26:00,
2013-05-23 17:27:00,67.1,61.2,29.86,North,0,0.0,0.0,81,0.00,,,0.01,WUHU216HW,2013-05-23 21:27:00,
2013-05-23 17:29:00,67.0,61.0,29.86,North,0,0.0,0.0,81,0.00,,,0.01,WUHU216HW,2013-05-23 21:29:00,
2013-05-23 17:30:00,67.0,61.0,29.86,North,0,0.0,0.0,81,0.00,,,0.01,WUHU216HW,2013-05-23 21:30:00,
2013-05-23 17:31:00,66.8,60.9,29.86,North,0,0.0,0.0,81,0.00,,,0.01,WUHU216HW,2013-05-23 21:31:00,
2013-05-23 17:32:00,66.8,60.9,29.86,North,0,0.0,0.0,81,0.00,,,0.01,WUHU216HW,2013-05-23 21:32:00,
2013-05-23 17:34:00,66.6,60.9,29.86,North,0,0.0,0.0,82,0.00,,,0.01,WUHU216HW,2013-05-23 21:34:00,
2013-05-23 17:35:00,66.6,60.9,29.86,North,0,0.0,0.0,82,0.00,,,0.01,WUHU216HW,2013-05-23 21:35:00,
2013-05-23 17:36:00,66.6,60.9,29.86,North,0,0.0,0.0,82,0.00,,,0.01,WUHU216HW,2013-05-23 21:36:00,
2013-05-23 17:37:00,66.6,60.9,29.85,North,0,0.0,0.0,82,0.00,,,0.01,WUHU216HW,2013-05-23 21:37:00,
2013-05-23 17:39:00,66.6,60.9,29.86,North,0,0.0,0.0,82,0.00,,,0.01,WUHU216HW,2013-05-23 21:39:00,
2013-05-23 17:40:00,66.2,60.6,29.86,North,0,0.0,0.0,82,0.00,,,0.01,WUHU216HW,2013-05-23 21:40:00,
2013-05-23 17:41:00,66.2,60.3,29.86,North,0,0.0,0.0,81,0.00,,,0.01,WUHU216HW,2013-05-23 21:41:00,
2013-05-23 17:42:00,66.2,60.3,29.86,North,0,0.0,0.0,81,0.00,,,0.01,WUHU216HW,2013-05-23 21:42:00,
2013-05-23 17:45:00,65.9,60.0,29.85,North,0,0.0,0.0,81,0.00,,,0.01,WUHU216HW,2013-05-23 21:45:00,
2013-05-23 17:46:00,65.9,60.0,29.85,North,0,0.0,0.0,81,0.00,,,0.01,WUHU216HW,2013-05-23 21:46:00,
2013-05-23 17:47:00,65.9,59.6,29.85,North,0,0.0,0.0,80,0.00,,,0.01,WUHU216HW,2013-05-23 21:47:00,
2013-05-23 17:50:00,65.5,59.2,29.85,North,0,0.0,0.0,80,0.00,,,0.01,WUHU216HW,2013-05-23 21:50:00,
2013-05-23 17:51:00,65.3,59.0,29.85,North,0,0.0,0.0,80,0.00,,,0.01,WUHU216HW,2013-05-23 21:51:00,
2013-05-23 17:52:00,65.3,59.4,29.85,North,0,0.0,0.0,81,0.00,,,0.01,WUHU216HW,2013-05-23 21:52:00,
2013-05-23 17:56:00,65.0,59.1,29.85,North,0,0.0,0.0,81,0.00,,,0.01,WUHU216HW,2013-05-23 21:56:00,
2013-05-23 17:57:00,65.0,59.1,29.85,North,0,0.0,0.0,81,0.00,,,0.01,WUHU216HW,2013-05-23 21:57:00,
2013-05-23 17:58:00,64.8,58.9,29.85,North,0,0.0,0.0,81,0.00,,,0.01,WUHU216HW,2013-05-23 21:58:00,
2013-05-23 18:01:00,64.6,59.1,29.85,North,0,0.0,0.0,82,0.00,,,0.01,WUHU216HW,2013-05-23 22:01:00,
2013-05-23 18:02:00,64.6,59.1,29.85,North,0,0.0,0.0,82,0.00,,,0.01,WUHU216HW,2013-05-23 22:02:00,
2013-05-23 18:03:00,64.6,59.1,29.85,North,0,0.0,0.0,82,0.00,,,0.01,WUHU216HW,2013-05-23 22:03:00,
2013-05-23 18:06:00,64.4,58.9,29.85,North,0,0.0,0.0,82,0.00,,,0.01,WUHU216HW,2013-05-23 22:06:00,
2013-05-23 18:07:00,64.4,58.9,29.85,North,0,0.0,0.0,82,0.00,,,0.01,WUHU216HW,2013-05-23 22:07:00,
2013-05-23 18:08:00,64.4,58.9,29.85,North,0,0.0,0.0,82,0.00,,,0.01,WUHU216HW,2013-05-23 22:08:00,
2013-05-23 18:11:00,64.3,58.7,29.85,North,0,0.0,0.0,82,0.00,,,0.01,WUHU216HW,2013-05-23 22:11:00,
2013-05-23 18:12:00,64.3,58.7,29.85,North,0,0.0,0.0,82,0.00,,,0.01,WUHU216HW,2013-05-23 22:12:00,
2013-05-23 18:14:00,64.1,58.5,29.85,North,0,0.0,0.0,82,0.00,,,0.01,WUHU216HW,2013-05-23 22:14:00,
2013-05-23 18:16:00,64.1,58.5,29.85,North,0,0.0,0.0,82,0.00,,,0.01,WUHU216HW,2013-05-23 22:16:00,
2013-05-23 18:17:00,64.1,58.5,29.85,North,0,0.0,0.0,82,0.00,,,0.01,WUHU216HW,2013-05-23 22:17:00,
2013-05-23 18:19:00,63.9,58.3,29.85,North,0,0.0,0.0,82,0.00,,,0.01,WUHU216HW,2013-05-23 22:19:00,
2013-05-23 18:21:00,63.7,58.2,29.85,North,0,0.0,0.0,82,0.00,,,0.01,WUHU216HW,2013-05-23 22:21:00,
2013-05-23 18:22:00,63.7,58.2,29.85,North,0,0.0,0.0,82,0.00,,,0.01,WUHU216HW,2013-05-23 22:22:00,
2013-05-23 18:23:00,63.5,58.0,29.85,North,0,0.0,0.0,82,0.00,,,0.01,WUHU216HW,2013-05-23 22:23:00,
2013-05-23 18:24:00,63.5,58.0,29.85,North,0,0.0,0.0,82,0.00,,,0.01,WUHU216HW,2013-05-23 22:24:00,
2013-05-23 18:27:00,63.4,58.1,29.85,North,0,0.0,0.0,83,0.00,,,0.01,WUHU216HW,2013-05-23 22:27:00,
2013-05-23 18:28:00,63.2,57.9,29.85,North,0,0.0,0.0,83,0.00,,,0.01,WUHU216HW,2013-05-23 22:28:00,
2013-05-23 18:29:00,63.2,57.9,29.85,North,0,0.0,0.0,83,0.00,,,0.01,WUHU216HW,2013-05-23 22:29:00,
2013-05-23 18:30:00,63.0,57.7,29.85,North,0,0.0,0.0,83,0.00,,,0.01,WUHU216HW,2013-05-23 22:30:00,
2013-05-23 18:32:00,63.0,57.7,29.85,North,0,0.0,0.0,83,0.00,,,0.01,WUHU216HW,2013-05-23 22:32:00,
2013-05-23 18:33:00,63.0,57.7,29.85,North,0,0.0,0.0,83,0.00,,,0.01,WUHU216HW,2013-05-23 22:33:00,
2013-05-23 18:34:00,63.0,57.7,29.84,North,0,0.0,0.0,83,0.00,,,0.01,WUHU216HW,2013-05-23 22:34:00,
2013-05-23 18:35:00,62.8,57.5,29.85,North,0,0.0,0.0,83,0.00,,,0.01,WUHU216HW,2013-05-23 22:35:00,
2013-05-23 18:37:00,62.8,57.5,29.85,North,0,0.0,0.0,83,0.00,,,0.01,WUHU216HW,2013-05-23 22:37:00,
2013-05-23 18:38:00,62.6,57.3,29.84,North,0,0.0,0.0,83,0.00,,,0.01,WUHU216HW,2013-05-23 22:38:00,
2013-05-23 18:39:00,62.6,57.7,29.84,North,0,0.0,0.0,84,0.00,,,0.01,WUHU216HW,2013-05-23 22:39:00,
2013-05-23 18:40:00,62.6,57.7,29.85,North,0,0.0,0.0,84,0.00,,,0.01,WUHU216HW,2013-05-23 22:40:00,
2013-05-23 18:42:00,62.6,57.7,29.84,North,0,0.0,0.0,84,0.00,,,0.01,WUHU216HW,2013-05-23 22:42:00,
2013-05-23 18:43:00,62.5,57.5,29.84,North,0,0.0,0.0,84,0.00,,,0.01,WUHU216HW,2013-05-23 22:43:00,
2013-05-23 18:44:00,62.5,57.9,29.84,North,0,0.0,0.0,85,0.00,,,0.01,WUHU216HW,2013-05-23 22:44:00,
2013-05-23 18:46:00,62.5,57.9,29.84,North,0,0.0,0.0,85,0.00,,,0.01,WUHU216HW,2013-05-23 22:46:00,
2013-05-23 18:48:00,62.3,57.3,29.84,North,0,0.0,0.0,84,0.00,,,0.01,WUHU216HW,2013-05-23 22:48:00,
2013-05-23 18:49:00,62.3,57.7,29.84,North,0,0.0,0.0,85,0.00,,,0.01,WUHU216HW,2013-05-23 22:49:00,
2013-05-23 18:51:00,62.3,57.7,29.84,North,0,0.0,0.0,85,0.00,,,0.01,WUHU216HW,2013-05-23 22:51:00,
2013-05-23 18:53:00,62.3,57.7,29.85,North,0,0.0,0.0,85,0.00,,,0.01,WUHU216HW,2013-05-23 22:53:00,
2013-05-23 18:55:00,62.3,57.7,29.85,North,0,0.0,0.0,85,0.00,,,0.01,WUHU216HW,2013-05-23 22:55:00,
2013-05-23 18:56:00,62.3,57.7,29.85,North,0,0.0,0.0,85,0.00,,,0.01,WUHU216HW,2013-05-23 22:56:00,
2013-05-23 18:58:00,62.3,57.7,29.85,North,0,0.0,0.0,85,0.00,,,0.01,WUHU216HW,2013-05-23 22:58:00,
2013-05-23 19:00:00,62.3,57.7,29.85,North,0,0.0,0.0,85,0.00,,,0.01,WUHU216HW,2013-05-23 23:00:00,
2013-05-23 19:01:00,62.3,57.7,29.85,North,0,0.0,0.0,85,0.00,,,0.01,WUHU216HW,2013-05-23 23:01:00,
2013-05-23 19:03:00,62.1,57.5,29.85,North,0,0.0,0.0,85,0.00,,,0.01,WUHU216HW,2013-05-23 23:03:00,
2013-05-23 19:05:00,62.1,57.5,29.85,North,0,0.0,0.0,85,0.00,,,0.01,WUHU216HW,2013-05-23 23:05:00,
2013-05-23 19:06:00,62.1,57.5,29.84,North,0,0.0,0.0,85,0.00,,,0.01,WUHU216HW,2013-05-23 23:06:00,
2013-05-23 19:08:00,61.9,57.3,29.85,North,0,0.0,0.0,85,0.00,,,0.01,WUHU216HW,2013-05-23 23:08:00,
2013-05-23 19:10:00,61.9,57.3,29.84,North,0,0.0,0.0,85,0.00,,,0.01,WUHU216HW,2013-05-23 23:10:00,
2013-05-23 19:11:00,61.9,57.3,29.84,North,0,0.0,0.0,85,0.00,,,0.01,WUHU216HW,2013-05-23 23:11:00,
2013-05-23 19:13:00,61.7,57.2,29.84,North,0,0.0,0.0,85,0.00,,,0.01,WUHU216HW,2013-05-23 23:13:00,
2013-05-23 19:15:00,61.7,57.2,29.84,North,0,0.0,0.0,85,0.00,,,0.01,WUHU216HW,2013-05-23 23:15:00,
2013-05-23 19:17:00,61.7,57.2,29.84,North,0,0.0,0.0,85,0.00,,,0.01,WUHU216HW,2013-05-23 23:17:00,
2013-05-23 19:18:00,61.6,57.1,29.85,North,0,0.0,0.0,85,0.00,,,0.01,WUHU216HW,2013-05-23 23:18:00,
2013-05-23 19:20:00,61.6,57.1,29.85,North,0,0.0,0.0,85,0.00,,,0.01,WUHU216HW,2013-05-23 23:20:00,
2013-05-23 19:22:00,61.6,57.1,29.84,North,0,0.0,0.0,85,0.00,,,0.01,WUHU216HW,2013-05-23 23:22:00,
2013-05-23 19:23:00,61.6,57.3,29.85,North,0,0.0,0.0,86,0.00,,,0.01,WUHU216HW,2013-05-23 23:23:00,
2013-05-23 19:26:00,61.6,57.3,29.85,North,0,0.0,0.0,86,0.00,,,0.01,WUHU216HW,2013-05-23 23:26:00,
2013-05-23 19:27:00,61.6,57.3,29.85,North,0,0.0,0.0,86,0.00,,,0.01,WUHU216HW,2013-05-23 23:27:00,
2013-05-23 19:28:00,61.4,57.2,29.85,North,0,0.0,0.0,86,0.00,,,0.01,WUHU216HW,2013-05-23 23:28:00,
2013-05-23 19:29:00,61.4,57.2,29.85,North,0,0.0,0.0,86,0.00,,,0.01,WUHU216HW,2013-05-23 23:29:00,
2013-05-23 19:31:00,61.4,57.2,29.85,North,0,0.0,0.0,86,0.00,,,0.01,WUHU216HW,2013-05-23 23:31:00,
2013-05-23 19:32:00,61.4,57.2,29.85,North,0,0.0,0.0,86,0.00,,,0.01,WUHU216HW,2013-05-23 23:32:00,
2013-05-23 19:33:00,61.4,57.2,29.85,North,0,0.0,0.0,86,0.00,,,0.01,WUHU216HW,2013-05-23 23:33:00,
2013-05-23 19:34:00,61.4,57.2,29.85,North,0,0.0,0.0,86,0.00,,,0.01,WUHU216HW,2013-05-23 23:34:00,
2013-05-23 19:36:00,61.4,57.5,29.85,North,0,0.0,0.0,87,0.00,,,0.01,WUHU216HW,2013-05-23 23:36:00,
2013-05-23 19:37:00,61.2,57.3,29.85,North,0,0.0,0.0,87,0.00,,,0.01,WUHU216HW,2013-05-23 23:37:00,
2013-05-23 19:39:00,61.4,57.5,29.85,North,0,0.0,0.0,87,0.00,,,0.01,WUHU216HW,2013-05-23 23:39:00,
2013-05-23 19:41:00,61.2,57.3,29.85,North,0,0.0,0.0,87,0.00,,,0.01,WUHU216HW,2013-05-23 23:41:00,
2013-05-23 19:42:00,61.2,57.3,29.85,North,0,0.0,0.0,87,0.00,,,0.01,WUHU216HW,2013-05-23 23:42:00,
2013-05-23 19:44:00,61.0,57.2,29.85,North,0,0.0,0.0,87,0.00,,,0.01,WUHU216HW,2013-05-23 23:44:00,
2013-05-23 19:46:00,61.0,57.2,29.85,North,0,0.0,0.0,87,0.00,,,0.01,WUHU216HW,2013-05-23 23:46:00,
2013-05-23 19:47:00,61.0,57.2,29.85,North,0,0.0,0.0,87,0.00,,,0.01,WUHU216HW,2013-05-23 23:47:00,
2013-05-23 19:49:00,60.8,57.0,29.84,North,0,0.0,0.0,87,0.00,,,0.01,WUHU216HW,2013-05-23 23:49:00,
2013-05-23 19:51:00,60.8,57.0,29.84,North,0,0.0,0.0,87,0.00,,,0.01,WUHU216HW,2013-05-23 23:51:00,
2013-05-23 19:52:00,60.8,57.0,29.84,North,0,0.0,0.0,87,0.00,,,0.01,WUHU216HW,2013-05-23 23:52:00,
2013-05-23 19:53:00,60.8,57.0,29.84,North,0,0.0,0.0,87,0.00,,,0.01,WUHU216HW,2013-05-23 23:53:00,
2013-05-23 19:54:00,60.8,57.0,29.85,North,0,0.0,0.0,87,0.00,,,0.01,WUHU216HW,2013-05-23 23:54:00,
2013-05-23 19:55:00,60.8,57.0,29.85,North,0,0.0,0.0,87,0.00,,,0.01,WUHU216HW,2013-05-23 23:55:00,
2013-05-23 19:57:00,60.8,57.0,29.85,North,0,0.0,0.0,87,0.00,,,0.01,WUHU216HW,2013-05-23 23:57:00,
2013-05-23 19:58:00,60.8,57.0,29.85,North,0,0.0,0.0,87,0.00,,,0.01,WUHU216HW,2013-05-23 23:58:00,
2013-05-23 20:00:00,60.8,57.0,29.85,North,0,0.0,0.0,87,0.00,,,0.01,WUHU216HW,2013-05-24 00:00:00,
2013-05-23 20:02:00,60.8,57.0,29.85,North,0,0.0,0.0,87,0.00,,,0.01,WUHU216HW,2013-05-24 00:02:00,
2013-05-23 20:03:00,60.7,56.8,29.85,North,0,0.0,0.0,87,0.00,,,0.01,WUHU216HW,2013-05-24 00:03:00,
2013-05-23 20:05:00,60.7,56.8,29.85,North,0,0.0,0.0,87,0.00,,,0.01,WUHU216HW,2013-05-24 00:05:00,
2013-05-23 20:06:00,60.7,56.8,29.85,North,0,0.0,0.0,87,0.00,,,0.01,WUHU216HW,2013-05-24 00:06:00,
2013-05-23 20:07:00,60.7,56.8,29.85,North,0,0.0,0.0,87,0.00,,,0.01,WUHU216HW,2013-05-24 00:07:00,
2013-05-23 20:08:00,60.7,56.8,29.85,North,0,0.0,0.0,87,0.00,,,0.01,WUHU216HW,2013-05-24 00:08:00,
2013-05-23 20:10:00,60.7,56.8,29.84,North,0,0.0,0.0,87,0.00,,,0.01,WUHU216HW,2013-05-24 00:10:00,
2013-05-23 20:11:00,60.7,56.8,29.84,North,0,0.0,0.0,87,0.00,,,0.01,WUHU216HW,2013-05-24 00:11:00,
2013-05-23 20:12:00,60.7,57.2,29.84,North,0,0.0,0.0,88,0.00,,,0.01,WUHU216HW,2013-05-24 00:12:00,
2013-05-23 20:13:00,60.7,57.2,29.84,North,0,0.0,0.0,88,0.00,,,0.01,WUHU216HW,2013-05-24 00:13:00,
2013-05-23 20:15:00,60.7,57.2,29.84,North,0,0.0,0.0,88,0.00,,,0.01,WUHU216HW,2013-05-24 00:15:00,
2013-05-23 20:16:00,60.7,57.2,29.84,North,0,0.0,0.0,88,0.00,,,0.01,WUHU216HW,2013-05-24 00:16:00,
2013-05-23 20:17:00,60.7,57.2,29.84,North,0,0.0,0.0,88,0.00,,,0.01,WUHU216HW,2013-05-24 00:17:00,
2013-05-23 20:18:00,60.7,56.8,29.84,North,0,0.0,0.0,87,0.00,,,0.01,WUHU216HW,2013-05-24 00:18:00,
2013-05-23 20:20:00,60.5,56.6,29.84,North,0,0.0,0.0,87,0.00,,,0.01,WUHU216HW,2013-05-24 00:20:00,
2013-05-23 20:22:00,60.5,56.6,29.84,North,0,0.0,0.0,87,0.00,,,0.01,WUHU216HW,2013-05-24 00:22:00,
2013-05-23 20:23:00,60.5,56.6,29.84,North,0,0.0,0.0,87,0.00,,,0.01,WUHU216HW,2013-05-24 00:23:00,
2013-05-23 20:24:00,60.5,56.6,29.84,North,0,0.0,0.0,87,0.00,,,0.01,WUHU216HW,2013-05-24 00:24:00,
2013-05-23 20:26:00,60.5,56.6,29.84,North,0,0.0,0.0,87,0.00,,,0.01,WUHU216HW,2013-05-24 00:26:00,
2013-05-23 20:27:00,60.5,56.6,29.84,North,0,0.0,0.0,87,0.00,,,0.01,WUHU216HW,2013-05-24 00:27:00,
2013-05-23 20:29:00,60.3,56.4,29.84,North,0,0.0,0.0,87,0.00,,,0.01,WUHU216HW,2013-05-24 00:29:00,
2013-05-23 20:31:00,60.3,56.4,29.84,North,0,0.0,0.0,87,0.00,,,0.01,WUHU216HW,2013-05-24 00:31:00,
2013-05-23 20:32:00,60.3,56.4,29.84,North,0,0.0,0.0,87,0.00,,,0.01,WUHU216HW,2013-05-24 00:32:00,
2013-05-23 20:33:00,60.3,56.4,29.84,North,0,0.0,0.0,87,0.00,,,0.01,WUHU216HW,2013-05-24 00:33:00,
2013-05-23 20:34:00,60.3,56.4,29.84,North,0,0.0,0.0,87,0.00,,,0.01,WUHU216HW,2013-05-24 00:34:00,
2013-05-23 20:35:00,60.1,56.3,29.84,North,0,0.0,0.0,87,0.00,,,0.01,WUHU216HW,2013-05-24 00:35:00,
2013-05-23 20:36:00,60.1,56.3,29.84,North,0,0.0,0.0,87,0.00,,,0.01,WUHU216HW,2013-05-24 00:36:00,
2013-05-23 20:38:00,60.1,56.3,29.84,North,0,0.0,0.0,87,0.00,,,0.01,WUHU216HW,2013-05-24 00:38:00,
2013-05-23 20:40:00,60.1,56.3,29.84,North,0,0.0,0.0,87,0.00,,,0.01,WUHU216HW,2013-05-24 00:40:00,
2013-05-23 20:41:00,60.1,56.3,29.84,North,0,0.0,0.0,87,0.00,,,0.01,WUHU216HW,2013-05-24 00:41:00,
2013-05-23 20:43:00,60.1,56.3,29.83,North,0,0.0,0.0,87,0.00,,,0.01,WUHU216HW,2013-05-24 00:43:00,
2013-05-23 20:45:00,60.1,56.3,29.83,North,0,0.0,0.0,87,0.00,,,0.01,WUHU216HW,2013-05-24 00:45:00,
2013-05-23 20:46:00,60.1,56.3,29.83,North,0,0.0,0.0,87,0.00,,,0.01,WUHU216HW,2013-05-24 00:46:00,
2013-05-23 20:48:00,60.1,56.3,29.83,North,0,0.0,0.0,87,0.00,,,0.01,WUHU216HW,2013-05-24 00:48:00,
2013-05-23 20:50:00,60.1,56.3,29.83,North,0,0.0,0.0,87,0.00,,,0.01,WUHU216HW,2013-05-24 00:50:00,
2013-05-23 20:51:00,59.9,56.1,29.83,North,0,0.0,0.0,87,0.00,,,0.01,WUHU216HW,2013-05-24 00:51:00,
2013-05-23 20:53:00,59.9,56.4,29.83,North,0,0.0,0.0,88,0.00,,,0.01,WUHU216HW,2013-05-24 00:53:00,
2013-05-23 20:55:00,59.9,56.4,29.83,North,0,0.0,0.0,88,0.00,,,0.01,WUHU216HW,2013-05-24 00:55:00,
2013-05-23 20:57:00,59.9,56.4,29.83,North,0,0.0,0.0,88,0.00,,,0.01,WUHU216HW,2013-05-24 00:57:00,
2013-05-23 20:58:00,60.1,56.6,29.83,North,0,0.0,0.0,88,0.00,,,0.01,WUHU216HW,2013-05-24 00:58:00,
2013-05-23 20:59:00,60.1,56.6,29.83,North,0,0.0,0.0,88,0.00,,,0.01,WUHU216HW,2013-05-24 00:59:00,
2013-05-23 21:00:00,60.1,56.6,29.83,North,0,0.0,0.0,88,0.00,,,0.01,WUHU216HW,2013-05-24 01:00:00,
2013-05-23 21:02:00,60.1,56.6,29.83,North,0,0.0,0.0,88,0.00,,,0.01,WUHU216HW,2013-05-24 01:02:00,
2013-05-23 21:03:00,60.1,56.6,29.83,North,0,0.0,0.0,88,0.00,,,0.01,WUHU216HW,2013-05-24 01:03:00,
2013-05-23 21:04:00,60.1,56.6,29.83,North,0,0.0,0.0,88,0.00,,,0.01,WUHU216HW,2013-05-24 01:04:00,
2013-05-23 21:05:00,60.1,56.6,29.83,North,0,0.0,0.0,88,0.00,,,0.01,WUHU216HW,2013-05-24 01:05:00,
2013-05-23 21:06:00,60.1,56.6,29.83,North,0,0.0,0.0,88,0.00,,,0.01,WUHU216HW,2013-05-24 01:06:00,
2013-05-23 21:07:00,60.1,56.6,29.83,North,0,0.0,0.0,88,0.00,,,0.01,WUHU216HW,2013-05-24 01:07:00,
2013-05-23 21:08:00,60.1,56.6,29.83,North,0,0.0,0.0,88,0.00,,,0.01,WUHU216HW,2013-05-24 01:08:00,
2013-05-23 21:09:00,60.1,56.6,29.83,North,0,0.0,0.0,88,0.00,,,0.01,WUHU216HW,2013-05-24 01:09:00,
2013-05-23 21:11:00,60.1,56.6,29.83,North,0,0.0,0.0,88,0.00,,,0.01,WUHU216HW,2013-05-24 01:11:00,
2013-05-23 21:12:00,59.9,56.4,29.83,North,0,0.0,0.0,88,0.00,,,0.01,WUHU216HW,2013-05-24 01:12:00,
2013-05-23 21:14:00,59.9,56.4,29.83,North,0,0.0,0.0,88,0.00,,,0.01,WUHU216HW,2013-05-24 01:14:00,
2013-05-23 21:16:00,59.8,56.3,29.83,North,0,0.0,0.0,88,0.00,,,0.01,WUHU216HW,2013-05-24 01:16:00,
2013-05-23 21:17:00,59.8,56.3,29.83,North,0,0.0,0.0,88,0.00,,,0.01,WUHU216HW,2013-05-24 01:17:00,
2013-05-23 21:19:00,59.8,56.3,29.83,North,0,0.0,0.0,88,0.00,,,0.01,WUHU216HW,2013-05-24 01:19:00,
2013-05-23 21:21:00,59.6,56.1,29.83,North,0,0.0,0.0,88,0.00,,,0.01,WUHU216HW,2013-05-24 01:21:00,
2013-05-23 21:22:00,59.6,56.1,29.83,North,0,0.0,0.0,88,0.00,,,0.01,WUHU216HW,2013-05-24 01:22:00,
2013-05-23 21:23:00,59.6,56.1,29.82,North,0,0.0,0.0,88,0.00,,,0.01,WUHU216HW,2013-05-24 01:23:00,
2013-05-23 21:24:00,59.6,56.1,29.83,North,0,0.0,0.0,88,0.00,,,0.01,WUHU216HW,2013-05-24 01:24:00,
2013-05-23 21:25:00,59.4,55.9,29.83,North,0,0.0,0.0,88,0.00,,,0.01,WUHU216HW,2013-05-24 01:25:00,
2013-05-23 21:27:00,59.6,56.3,29.82,North,0,0.0,0.0,89,0.00,,,0.01,WUHU216HW,2013-05-24 01:27:00,
2013-05-23 21:28:00,59.6,56.3,29.82,North,0,0.0,0.0,89,0.00,,,0.01,WUHU216HW,2013-05-24 01:28:00,
2013-05-23 21:30:00,59.6,56.3,29.82,North,0,0.0,0.0,89,0.00,,,0.01,WUHU216HW,2013-05-24 01:30:00,
2013-05-23 21:32:00,59.6,56.3,29.82,North,0,0.0,0.0,89,0.00,,,0.01,WUHU216HW,2013-05-24 01:32:00,
2013-05-23 21:33:00,59.6,56.3,29.82,North,0,0.0,0.0,89,0.00,,,0.01,WUHU216HW,2013-05-24 01:33:00,
2013-05-23 21:35:00,59.8,56.5,29.82,North,0,0.0,0.0,89,0.00,,,0.01,WUHU216HW,2013-05-24 01:35:00,
2013-05-23 21:37:00,59.8,56.5,29.82,North,0,0.0,0.0,89,0.00,,,0.01,WUHU216HW,2013-05-24 01:37:00,
2013-05-23 21:38:00,59.8,56.5,29.82,North,0,0.0,0.0,89,0.00,,,0.01,WUHU216HW,2013-05-24 01:38:00,
2013-05-23 21:40:00,59.6,56.3,29.82,North,0,0.0,0.0,89,0.00,,,0.01,WUHU216HW,2013-05-24 01:40:00,
2013-05-23 21:42:00,59.6,56.3,29.82,North,0,0.0,0.0,89,0.00,,,0.01,WUHU216HW,2013-05-24 01:42:00,
2013-05-23 21:43:00,59.6,56.3,29.82,North,0,0.0,0.0,89,0.00,,,0.01,WUHU216HW,2013-05-24 01:43:00,
2013-05-23 21:45:00,59.6,56.3,29.83,North,0,0.0,0.0,89,0.00,,,0.01,WUHU216HW,2013-05-24 01:45:00,
2013-05-23 21:46:00,59.6,56.3,29.82,North,0,0.0,0.0,89,0.00,,,0.01,WUHU216HW,2013-05-24 01:46:00,
2013-05-23 21:47:00,59.6,56.3,29.82,North,0,0.0,0.0,89,0.00,,,0.01,WUHU216HW,2013-05-24 01:47:00,
2013-05-23 21:48:00,59.6,56.3,29.82,North,0,0.0,0.0,89,0.00,,,0.01,WUHU216HW,2013-05-24 01:48:00,
2013-05-23 21:50:00,59.6,56.3,29.82,North,0,0.0,0.0,89,0.00,,,0.01,WUHU216HW,2013-05-24 01:50:00,
2013-05-23 21:51:00,59.6,56.3,29.82,North,0,0.0,0.0,89,0.00,,,0.01,WUHU216HW,2013-05-24 01:51:00,
2013-05-23 21:52:00,59.6,56.3,29.82,North,0,0.0,0.0,89,0.00,,,0.01,WUHU216HW,2013-05-24 01:52:00,
2013-05-23 21:53:00,59.6,56.3,29.82,North,0,0.0,0.0,89,0.00,,,0.01,WUHU216HW,2013-05-24 01:53:00,
2013-05-23 21:54:00,59.6,56.3,29.82,North,0,0.0,0.0,89,0.00,,,0.01,WUHU216HW,2013-05-24 01:54:00,
2013-05-23 21:55:00,59.6,56.3,29.82,North,0,0.0,0.0,89,0.00,,,0.01,WUHU216HW,2013-05-24 01:55:00,
2013-05-23 21:56:00,59.6,56.3,29.82,North,0,0.0,0.0,89,0.00,,,0.01,WUHU216HW,2013-05-24 01:56:00,
2013-05-23 21:58:00,59.6,56.3,29.82,North,0,0.0,0.0,89,0.00,,,0.01,WUHU216HW,2013-05-24 01:58:00,
2013-05-23 21:59:00,59.6,56.3,29.82,North,0,0.0,0.0,89,0.00,,,0.01,WUHU216HW,2013-05-24 01:59:00,
2013-05-23 22:00:00,59.6,56.3,29.82,North,0,0.0,0.0,89,0.00,,,0.01,WUHU216HW,2013-05-24 02:00:00,
2013-05-23 22:02:00,59.6,56.3,29.82,North,0,0.0,0.0,89,0.00,,,0.01,WUHU216HW,2013-05-24 02:02:00,
2013-05-23 22:03:00,59.6,56.3,29.82,North,0,0.0,0.0,89,0.00,,,0.01,WUHU216HW,2013-05-24 02:03:00,
2013-05-23 22:04:00,59.6,56.3,29.82,North,0,0.0,0.0,89,0.00,,,0.01,WUHU216HW,2013-05-24 02:04:00,
2013-05-23 22:05:00,59.6,56.3,29.82,North,0,0.0,0.0,89,0.00,,,0.01,WUHU216HW,2013-05-24 02:05:00,
2013-05-23 22:07:00,59.6,56.3,29.82,North,0,0.0,0.0,89,0.00,,,0.01,WUHU216HW,2013-05-24 02:07:00,
2013-05-23 22:08:00,59.6,56.3,29.81,North,0,0.0,0.0,89,0.00,,,0.01,WUHU216HW,2013-05-24 02:08:00,
2013-05-23 22:09:00,59.4,56.2,29.82,North,0,0.0,0.0,89,0.00,,,0.01,WUHU216HW,2013-05-24 02:09:00,
2013-05-23 22:11:00,59.4,56.2,29.82,North,0,0.0,0.0,89,0.00,,,0.01,WUHU216HW,2013-05-24 02:11:00,
2013-05-23 22:13:00,59.4,56.2,29.81,North,0,0.0,0.0,89,0.00,,,0.01,WUHU216HW,2013-05-24 02:13:00,
2013-05-23 22:14:00,59.2,56.0,29.81,North,0,0.0,0.0,89,0.01,,,0.01,WUHU216HW,2013-05-24 02:14:00,
2013-05-23 22:16:00,59.2,56.0,29.81,North,0,0.0,0.0,89,0.01,,,0.02,WUHU216HW,2013-05-24 02:16:00,
2013-05-23 22:18:00,59.2,56.0,29.81,North,0,0.0,0.0,89,0.01,,,0.02,WUHU216HW,2013-05-24 02:18:00,
2013-05-23 22:19:00,59.2,56.0,29.81,North,0,0.0,0.0,89,0.01,,,0.02,WUHU216HW,2013-05-24 02:19:00,
2013-05-23 22:20:00,59.2,56.0,29.81,North,0,0.0,0.0,89,0.01,,,0.02,WUHU216HW,2013-05-24 02:20:00,
2013-05-23 22:21:00,59.0,55.8,29.81,North,0,0.0,0.0,89,0.01,,,0.02,WUHU216HW,2013-05-24 02:21:00,
2013-05-23 22:23:00,59.0,55.8,29.81,North,0,0.0,0.0,89,0.01,,,0.02,WUHU216HW,2013-05-24 02:23:00,
2013-05-23 22:24:00,59.0,55.8,29.81,North,0,0.0,0.0,89,0.01,,,0.02,WUHU216HW,2013-05-24 02:24:00,
2013-05-23 22:25:00,59.0,56.2,29.81,North,0,0.0,0.0,90,0.01,,,0.02,WUHU216HW,2013-05-24 02:25:00,
2013-05-23 22:26:00,59.0,55.8,29.81,North,0,0.0,0.0,89,0.01,,,0.02,WUHU216HW,2013-05-24 02:26:00,
2013-05-23 22:28:00,58.9,55.6,29.81,North,0,0.0,0.0,89,0.01,,,0.02,WUHU216HW,2013-05-24 02:28:00,
2013-05-23 22:29:00,58.9,56.0,29.81,North,0,0.0,0.0,90,0.01,,,0.02,WUHU216HW,2013-05-24 02:29:00,
2013-05-23 22:30:00,58.9,56.0,29.81,North,0,0.0,0.0,90,0.01,,,0.02,WUHU216HW,2013-05-24 02:30:00,
2013-05-23 22:31:00,58.7,55.4,29.81,North,0,0.0,0.0,89,0.01,,,0.02,WUHU216HW,2013-05-24 02:31:00,
2013-05-23 22:33:00,58.7,55.8,29.81,North,0,0.0,0.0,90,0.01,,,0.02,WUHU216HW,2013-05-24 02:33:00,
2013-05-23 22:35:00,58.7,55.8,29.81,North,0,0.0,0.0,90,0.01,,,0.02,WUHU216HW,2013-05-24 02:35:00,
2013-05-23 22:36:00,58.7,55.8,29.81,North,0,0.0,0.0,90,0.01,,,0.02,WUHU216HW,2013-05-24 02:36:00,
2013-05-23 22:38:00,58.7,55.8,29.80,North,0,0.0,0.0,90,0.01,,,0.02,WUHU216HW,2013-05-24 02:38:00,
2013-05-23 22:39:00,58.7,55.8,29.80,North,0,0.0,0.0,90,0.01,,,0.02,WUHU216HW,2013-05-24 02:39:00,
2013-05-23 22:40:00,58.7,55.8,29.81,North,0,0.0,0.0,90,0.01,,,0.02,WUHU216HW,2013-05-24 02:40:00,
2013-05-23 22:41:00,58.7,55.8,29.80,North,0,0.0,0.0,90,0.01,,,0.02,WUHU216HW,2013-05-24 02:41:00,
2013-05-23 22:42:00,58.7,55.8,29.80,North,0,0.0,0.0,90,0.01,,,0.02,WUHU216HW,2013-05-24 02:42:00,
2013-05-23 22:44:00,58.7,55.8,29.80,North,0,0.0,0.0,90,0.01,,,0.02,WUHU216HW,2013-05-24 02:44:00,
2013-05-23 22:45:00,58.9,56.0,29.80,North,0,0.0,0.0,90,0.01,,,0.02,WUHU216HW,2013-05-24 02:45:00,
2013-05-23 22:46:00,58.9,56.0,29.80,North,0,0.0,0.0,90,0.01,,,0.02,WUHU216HW,2013-05-24 02:46:00,
2013-05-23 22:47:00,58.9,56.0,29.80,North,0,0.0,0.0,90,0.01,,,0.02,WUHU216HW,2013-05-24 02:47:00,
2013-05-23 22:49:00,58.9,56.0,29.80,North,0,0.0,0.0,90,0.01,,,0.02,WUHU216HW,2013-05-24 02:49:00,
2013-05-23 22:50:00,58.9,56.0,29.80,North,0,0.0,0.0,90,0.01,,,0.02,WUHU216HW,2013-05-24 02:50:00,
2013-05-23 22:52:00,58.9,56.0,29.80,North,0,0.0,0.0,90,0.01,,,0.02,WUHU216HW,2013-05-24 02:52:00,
2013-05-23 22:54:00,58.7,55.8,29.80,North,0,0.0,0.0,90,0.01,,,0.02,WUHU216HW,2013-05-24 02:54:00,
2013-05-23 22:55:00,58.7,55.8,29.80,North,0,0.0,0.0,90,0.01,,,0.02,WUHU216HW,2013-05-24 02:55:00,
2013-05-23 22:57:00,58.7,55.8,29.79,North,0,0.0,0.0,90,0.01,,,0.02,WUHU216HW,2013-05-24 02:57:00,
2013-05-23 22:58:00,58.7,55.8,29.79,North,0,0.0,0.0,90,0.01,,,0.02,WUHU216HW,2013-05-24 02:58:00,
2013-05-23 22:59:00,58.7,55.8,29.80,North,0,0.0,0.0,90,0.01,,,0.02,WUHU216HW,2013-05-24 02:59:00,
2013-05-23 23:00:00,58.7,55.8,29.80,North,0,0.0,0.0,90,0.01,,,0.02,WUHU216HW,2013-05-24 03:00:00,
2013-05-23 23:02:00,58.7,55.8,29.80,North,0,0.0,0.0,90,0.01,,,0.02,WUHU216HW,2013-05-24 03:02:00,
2013-05-23 23:03:00,58.7,55.8,29.80,North,0,0.0,0.0,90,0.01,,,0.02,WUHU216HW,2013-05-24 03:03:00,
2013-05-23 23:04:00,58.7,55.8,29.80,North,0,0.0,0.0,90,0.01,,,0.02,WUHU216HW,2013-05-24 03:04:00,
2013-05-23 23:05:00,58.7,55.8,29.80,North,0,0.0,0.0,90,0.01,,,0.02,WUHU216HW,2013-05-24 03:05:00,
2013-05-23 23:07:00,58.7,55.8,29.80,North,0,0.0,0.0,90,0.01,,,0.02,WUHU216HW,2013-05-24 03:07:00,
2013-05-23 23:08:00,58.7,55.8,29.80,North,0,0.0,0.0,90,0.01,,,0.02,WUHU216HW,2013-05-24 03:08:00,
2013-05-23 23:10:00,58.7,55.8,29.80,North,0,0.0,0.0,90,0.01,,,0.02,WUHU216HW,2013-05-24 03:10:00,
2013-05-23 23:12:00,58.9,56.0,29.80,North,0,0.0,0.0,90,0.00,,,0.02,WUHU216HW,2013-05-24 03:12:00,
2013-05-23 23:13:00,58.9,56.0,29.80,North,0,0.0,0.0,90,0.00,,,0.02,WUHU216HW,2013-05-24 03:13:00,
2013-05-23 23:15:00,58.9,56.0,29.80,North,0,0.0,0.0,90,0.00,,,0.02,WUHU216HW,2013-05-24 03:15:00,
2013-05-23 23:18:00,59.0,56.2,29.80,North,0,0.0,0.0,90,0.00,,,0.02,WUHU216HW,2013-05-24 03:18:00,
2013-05-23 23:20:00,59.0,56.2,29.80,North,0,0.0,0.0,90,0.00,,,0.02,WUHU216HW,2013-05-24 03:20:00,
2013-05-23 23:21:00,59.0,56.2,29.80,North,0,0.0,0.0,90,0.00,,,0.02,WUHU216HW,2013-05-24 03:21:00,
2013-05-23 23:23:00,59.0,56.2,29.80,North,0,0.0,0.0,90,0.00,,,0.02,WUHU216HW,2013-05-24 03:23:00,
2013-05-23 23:25:00,59.2,56.3,29.80,North,0,0.0,0.0,90,0.00,,,0.02,WUHU216HW,2013-05-24 03:25:00,
2013-05-23 23:26:00,59.2,56.3,29.80,North,0,0.0,0.0,90,0.00,,,0.02,WUHU216HW,2013-05-24 03:26:00,
2013-05-23 23:28:00,59.2,56.3,29.80,North,0,0.0,0.0,90,0.00,,,0.02,WUHU216HW,2013-05-24 03:28:00,
2013-05-23 23:29:00,59.2,56.3,29.80,North,0,0.0,0.0,90,0.00,,,0.02,WUHU216HW,2013-05-24 03:29:00,
2013-05-23 23:30:00,59.2,56.3,29.80,North,0,0.0,0.0,90,0.00,,,0.02,WUHU216HW,2013-05-24 03:30:00,
2013-05-23 23:31:00,59.2,56.3,29.79,North,0,0.0,0.0,90,0.00,,,0.02,WUHU216HW,2013-05-24 03:31:00,
2013-05-23 23:33:00,59.2,56.3,29.79,North,0,0.0,0.0,90,0.00,,,0.02,WUHU216HW,2013-05-24 03:33:00,
2013-05-23 23:34:00,59.4,56.5,29.79,North,0,0.0,0.0,90,0.00,,,0.02,WUHU216HW,2013-05-24 03:34:00,
2013-05-23 23:35:00,59.2,56.3,29.80,North,0,0.0,0.0,90,0.00,,,0.02,WUHU216HW,2013-05-24 03:35:00,
2013-05-23 23:36:00,59.4,56.5,29.80,North,0,0.0,0.0,90,0.00,,,0.02,WUHU216HW,2013-05-24 03:36:00,
2013-05-23 23:38:00,59.4,56.8,29.79,North,0,0.0,0.0,91,0.00,,,0.02,WUHU216HW,2013-05-24 03:38:00,
2013-05-23 23:39:00,59.4,56.8,29.79,North,0,0.0,0.0,91,0.00,,,0.02,WUHU216HW,2013-05-24 03:39:00,
2013-05-23 23:41:00,59.4,56.8,29.79,North,0,0.0,0.0,91,0.00,,,0.02,WUHU216HW,2013-05-24 03:41:00,
2013-05-23 23:43:00,59.6,57.0,29.79,North,0,0.0,0.0,91,0.00,,,0.02,WUHU216HW,2013-05-24 03:43:00,
2013-05-23 23:44:00,59.6,57.0,29.79,North,0,0.0,0.0,91,0.00,,,0.02,WUHU216HW,2013-05-24 03:44:00,
2013-05-23 23:46:00,59.6,57.0,29.78,North,0,0.0,0.0,91,0.00,,,0.02,WUHU216HW,2013-05-24 03:46:00,
2013-05-23 23:49:00,59.6,57.0,29.78,North,0,0.0,0.0,91,0.00,,,0.02,WUHU216HW,2013-05-24 03:49:00,
2013-05-23 23:51:00,59.6,57.0,29.78,North,0,0.0,0.0,91,0.00,,,0.02,WUHU216HW,2013-05-24 03:51:00,
2013-05-23 23:54:00,59.8,57.2,29.78,North,0,0.0,0.0,91,0.00,,,0.02,WUHU216HW,2013-05-24 03:54:00,
2013-05-23 23:56:00,59.8,57.4,29.78,North,0,0.0,0.0,92,0.00,,,0.02,WUHU216HW,2013-05-24 03:56:00,
2013-05-23 23:59:00,59.9,57.6,29.78,North,0,0.0,0.0,92,0.00,,,0.02,WUHU216HW,2013-05-24 03:59:00,